Wetterdaten: Dienstag, 05.07.2016
Datum Zeit Temp. A. Feuchte A. Luftdruck Regen Wind Richtung Richtung Sonnenschein ET UV Solar Taupunkt Windchill Windben Empfang
05.07.2016 00:00 16,2 C 83 % 1017,8 hPa 0,0 l/m 1,6 km/h (1 Bft) SW 218 0 min 0,000 mm 0,0 UV-I 0 W/m 13,3 C 16,2 C 4,8 km/h (1 Bft) 100,00 %
05.07.2016 00:02 16,3 C 83 % 1017,8 hPa 0,0 l/m 3,0 km/h (1 Bft) SW 218 0 min 0,000 mm 0,0 UV-I 0 W/m 13,4 C 16,3 C 4,8 km/h (1 Bft) 100,00 %
05.07.2016 00:04 16,4 C 82 % 1017,8 hPa 0,0 l/m 2,4 km/h (1 Bft) SW 218 0 min 0,000 mm 0,0 UV-I 0 W/m 13,3 C 16,4 C 3,2 km/h (1 Bft) 100,00 %
05.07.2016 00:06 16,3 C 83 % 1017,8 hPa 0,0 l/m 1,6 km/h (1 Bft) SW 218 0 min 0,000 mm 0,0 UV-I 0 W/m 13,4 C 16,3 C 3,2 km/h (1 Bft) 97,87 %
05.07.2016 00:08 16,3 C 83 % 1017,8 hPa 0,0 l/m 2,9 km/h (1 Bft) SW 218 0 min 0,000 mm 0,0 UV-I 0 W/m 13,4 C 16,3 C 4,8 km/h (1 Bft) 100,00 %
05.07.2016 00:10 16,2 C 83 % 1017,7 hPa 0,0 l/m 2,0 km/h (1 Bft) SW 218 0 min 0,000 mm 0,0 UV-I 0 W/m 13,3 C 16,2 C 3,2 km/h (1 Bft) 100,00 %
05.07.2016 00:12 16,1 C 84 % 1017,8 hPa 0,0 l/m 2,0 km/h (1 Bft) SW 218 0 min 0,000 mm 0,0 UV-I 0 W/m 13,4 C 16,1 C 3,2 km/h (1 Bft) 100,00 %
05.07.2016 00:14 15,9 C 84 % 1017,8 hPa 0,0 l/m 2,3 km/h (1 Bft) SW 218 0 min 0,000 mm 0,0 UV-I 0 W/m 13,2 C 15,9 C 3,2 km/h (1 Bft) 100,00 %
05.07.2016 00:16 15,8 C 84 % 1017,8 hPa 0,0 l/m 3,3 km/h (1 Bft) SW 218 0 min 0,000 mm 0,0 UV-I 0 W/m 13,1 C 15,8 C 4,8 km/h (1 Bft) 100,00 %
05.07.2016 00:18 15,7 C 86 % 1017,8 hPa 0,0 l/m 3,2 km/h (1 Bft) SW 218 0 min 0,000 mm 0,0 UV-I 0 W/m 13,4 C 15,7 C 4,8 km/h (1 Bft) 100,00 %
05.07.2016 00:20 15,6 C 86 % 1017,8 hPa 0,0 l/m 3,5 km/h (1 Bft) SW 218 0 min 0,000 mm 0,0 UV-I 0 W/m 13,3 C 15,6 C 4,8 km/h (1 Bft) 100,00 %
05.07.2016 00:22 15,4 C 86 % 1017,8 hPa 0,0 l/m 3,0 km/h (1 Bft) SW 217 0 min 0,000 mm 0,0 UV-I 0 W/m 13,1 C 15,4 C 4,8 km/h (1 Bft) 100,00 %
05.07.2016 00:24 15,4 C 87 % 1017,8 hPa 0,0 l/m 2,2 km/h (1 Bft) SW 218 0 min 0,000 mm 0,0 UV-I 0 W/m 13,2 C 15,4 C 3,2 km/h (1 Bft) 100,00 %
05.07.2016 00:26 15,5 C 87 % 1017,8 hPa 0,0 l/m 3,7 km/h (1 Bft) SW 217 0 min 0,000 mm 0,0 UV-I 0 W/m 13,3 C 15,5 C 6,4 km/h (2 Bft) 100,00 %
05.07.2016 00:28 15,6 C 87 % 1017,8 hPa 0,0 l/m 4,2 km/h (1 Bft) S-SW 194 0 min 0,000 mm 0,0 UV-I 0 W/m 13,4 C 15,6 C 6,4 km/h (2 Bft) 100,00 %
05.07.2016 00:30 15,6 C 86 % 1017,8 hPa 0,0 l/m 4,1 km/h (1 Bft) S-SW 193 0 min 0,000 mm 0,0 UV-I 0 W/m 13,3 C 15,6 C 6,4 km/h (2 Bft) 97,87 %
05.07.2016 00:32 15,7 C 86 % 1017,9 hPa 0,0 l/m 5,5 km/h (1 Bft) S 178 0 min 0,000 mm 0,0 UV-I 0 W/m 13,4 C 15,7 C 8,0 km/h (2 Bft) 91,49 %
05.07.2016 00:34 15,8 C 86 % 1017,9 hPa 0,0 l/m 5,1 km/h (1 Bft) S 173 0 min 0,000 mm 0,0 UV-I 0 W/m 13,5 C 15,8 C 8,0 km/h (2 Bft) 93,62 %
05.07.2016 00:36 15,8 C 86 % 1017,8 hPa 0,0 l/m 3,7 km/h (1 Bft) S 173 0 min 0,000 mm 0,0 UV-I 0 W/m 13,5 C 15,8 C 4,8 km/h (1 Bft) 95,74 %
05.07.2016 00:38 15,9 C 85 % 1017,8 hPa 0,0 l/m 3,0 km/h (1 Bft) S 174 0 min 0,000 mm 0,0 UV-I 0 W/m 13,4 C 15,9 C 4,8 km/h (1 Bft) 95,74 %
05.07.2016 00:40 15,9 C 85 % 1017,8 hPa 0,0 l/m 4,2 km/h (1 Bft) S 180 0 min 0,000 mm 0,0 UV-I 0 W/m 13,4 C 15,9 C 4,8 km/h (1 Bft) 98,00 %
05.07.2016 00:42 15,9 C 85 % 1017,8 hPa 0,0 l/m 3,4 km/h (1 Bft) S 182 0 min 0,000 mm 0,0 UV-I 0 W/m 13,4 C 15,9 C 6,4 km/h (2 Bft) 95,74 %
05.07.2016 00:44 15,9 C 85 % 1017,8 hPa 0,0 l/m 2,8 km/h (1 Bft) S 182 0 min 0,000 mm 0,0 UV-I 0 W/m 13,4 C 15,9 C 4,8 km/h (1 Bft) 95,74 %
05.07.2016 00:46 15,9 C 85 % 1017,7 hPa 0,0 l/m 1,9 km/h (1 Bft) S 182 0 min 0,000 mm 0,0 UV-I 0 W/m 13,4 C 15,9 C 3,2 km/h (1 Bft) 97,22 %
05.07.2016 00:48 15,9 C 85 % 1017,8 hPa 0,0 l/m 2,8 km/h (1 Bft) S 182 0 min 0,000 mm 0,0 UV-I 0 W/m 13,4 C 15,9 C 4,8 km/h (1 Bft) 98,00 %
05.07.2016 00:50 15,9 C 85 % 1017,7 hPa 0,0 l/m 2,9 km/h (1 Bft) S 182 0 min 0,000 mm 0,0 UV-I 0 W/m 13,4 C 15,9 C 4,8 km/h (1 Bft) 95,74 %
05.07.2016 00:52 15,9 C 85 % 1017,7 hPa 0,0 l/m 2,6 km/h (1 Bft) S 182 0 min 0,000 mm 0,0 UV-I 0 W/m 13,4 C 15,9 C 4,8 km/h (1 Bft) 95,74 %
05.07.2016 00:54 15,9 C 85 % 1017,7 hPa 0,0 l/m 3,0 km/h (1 Bft) S 182 0 min 0,000 mm 0,0 UV-I 0 W/m 13,4 C 15,9 C 6,4 km/h (2 Bft) 96,00 %
05.07.2016 00:56 15,9 C 85 % 1017,6 hPa 0,0 l/m 3,0 km/h (1 Bft) S 182 0 min 0,000 mm 0,0 UV-I 0 W/m 13,4 C 15,9 C 4,8 km/h (1 Bft) 97,87 %
05.07.2016 00:58 15,9 C 85 % 1017,6 hPa 0,0 l/m 2,1 km/h (1 Bft) S 182 0 min 0,000 mm 0,0 UV-I 0 W/m 13,4 C 15,9 C 3,2 km/h (1 Bft) 97,87 %
05.07.2016 01:00 15,8 C 85 % 1017,5 hPa 0,0 l/m 1,2 km/h (1 Bft) S 182 0 min 0,000 mm 0,0 UV-I 0 W/m 13,3 C 15,8 C 3,2 km/h (1 Bft) 95,74 %
05.07.2016 01:02 15,8 C 85 % 1017,5 hPa 0,0 l/m 2,0 km/h (1 Bft) S 182 0 min 0,000 mm 0,0 UV-I 0 W/m 13,3 C 15,8 C 3,2 km/h (1 Bft) 97,87 %
05.07.2016 01:04 15,8 C 85 % 1017,6 hPa 0,0 l/m 2,3 km/h (1 Bft) S 182 0 min 0,000 mm 0,0 UV-I 0 W/m 13,3 C 15,8 C 3,2 km/h (1 Bft) 100,00 %
05.07.2016 01:06 15,8 C 85 % 1017,6 hPa 0,0 l/m 3,1 km/h (1 Bft) S 182 0 min 0,000 mm 0,0 UV-I 0 W/m 13,3 C 15,8 C 4,8 km/h (1 Bft) 100,00 %
05.07.2016 01:08 15,8 C 85 % 1017,6 hPa 0,0 l/m 1,2 km/h (1 Bft) S 182 0 min 0,000 mm 0,0 UV-I 0 W/m 13,3 C 15,8 C 3,2 km/h (1 Bft) 97,87 %
05.07.2016 01:10 15,8 C 85 % 1017,7 hPa 0,0 l/m 1,2 km/h (1 Bft) S 182 0 min 0,000 mm 0,0 UV-I 0 W/m 13,3 C 15,8 C 1,6 km/h (1 Bft) 97,87 %
05.07.2016 01:12 15,8 C 85 % 1017,6 hPa 0,0 l/m 0,1 km/h (0 Bft) S 182 0 min 0,000 mm 0,0 UV-I 0 W/m 13,3 C 15,8 C 1,6 km/h (1 Bft) 100,00 %
05.07.2016 01:14 15,7 C 85 % 1017,6 hPa 0,0 l/m 0,0 km/h (0 Bft) S 182 0 min 0,000 mm 0,0 UV-I 0 W/m 13,2 C 15,7 C 0,0 km/h (0 Bft) 100,00 %
05.07.2016 01:16 15,6 C 85 % 1017,5 hPa 0,0 l/m 0,0 km/h (0 Bft) S 182 0 min 0,000 mm 0,0 UV-I 0 W/m 13,1 C 15,6 C 0,0 km/h (0 Bft) 100,00 %
05.07.2016 01:18 15,6 C 86 % 1017,6 hPa 0,0 l/m 0,0 km/h (0 Bft) S 182 0 min 0,000 mm 0,0 UV-I 0 W/m 13,3 C 15,6 C 1,6 km/h (1 Bft) 96,00 %
05.07.2016 01:20 15,4 C 85 % 1017,6 hPa 0,0 l/m 3,2 km/h (1 Bft) S 177 0 min 0,000 mm 0,0 UV-I 0 W/m 12,9 C 15,4 C 4,8 km/h (1 Bft) 100,00 %
05.07.2016 01:22 15,3 C 86 % 1017,5 hPa 0,0 l/m 1,6 km/h (1 Bft) S 177 0 min 0,000 mm 0,0 UV-I 0 W/m 13,0 C 15,3 C 3,2 km/h (1 Bft) 100,00 %
05.07.2016 01:24 15,1 C 86 % 1017,5 hPa 0,0 l/m 0,9 km/h (0 Bft) S 177 0 min 0,000 mm 0,0 UV-I 0 W/m 12,8 C 15,1 C 1,6 km/h (1 Bft) 97,87 %
05.07.2016 01:26 14,9 C 87 % 1017,5 hPa 0,0 l/m 0,7 km/h (0 Bft) S 177 0 min 0,000 mm 0,0 UV-I 0 W/m 12,8 C 14,9 C 1,6 km/h (1 Bft) 100,00 %
05.07.2016 01:28 14,8 C 87 % 1017,5 hPa 0,0 l/m 1,9 km/h (1 Bft) S 177 0 min 0,000 mm 0,0 UV-I 0 W/m 12,7 C 14,8 C 3,2 km/h (1 Bft) 100,00 %
05.07.2016 01:30 14,8 C 88 % 1017,5 hPa 0,0 l/m 3,1 km/h (1 Bft) S 177 0 min 0,000 mm 0,0 UV-I 0 W/m 12,8 C 14,8 C 3,2 km/h (1 Bft) 100,00 %
05.07.2016 01:32 14,7 C 88 % 1017,4 hPa 0,0 l/m 2,3 km/h (1 Bft) S 177 0 min 0,000 mm 0,0 UV-I 0 W/m 12,7 C 14,7 C 3,2 km/h (1 Bft) 100,00 %
05.07.2016 01:34 14,8 C 89 % 1017,4 hPa 0,0 l/m 2,0 km/h (1 Bft) S 177 0 min 0,000 mm 0,0 UV-I 0 W/m 13,0 C 14,8 C 3,2 km/h (1 Bft) 100,00 %
05.07.2016 01:36 14,8 C 88 % 1017,4 hPa 0,0 l/m 0,8 km/h (0 Bft) S 177 0 min 0,000 mm 0,0 UV-I 0 W/m 12,8 C 14,8 C 1,6 km/h (1 Bft) 100,00 %
05.07.2016 01:38 14,8 C 88 % 1017,5 hPa 0,0 l/m 0,5 km/h (0 Bft) S 177 0 min 0,000 mm 0,0 UV-I 0 W/m 12,8 C 14,8 C 1,6 km/h (1 Bft) 100,00 %
05.07.2016 01:40 14,7 C 88 % 1017,4 hPa 0,0 l/m 0,5 km/h (0 Bft) S 177 0 min 0,000 mm 0,0 UV-I 0 W/m 12,7 C 14,7 C 1,6 km/h (1 Bft) 100,00 %
05.07.2016 01:42 14,7 C 88 % 1017,4 hPa 0,0 l/m 0,5 km/h (0 Bft) S 177 0 min 0,000 mm 0,0 UV-I 0 W/m 12,7 C 14,7 C 1,6 km/h (1 Bft) 100,00 %
05.07.2016 01:44 14,6 C 88 % 1017,4 hPa 0,0 l/m 0,0 km/h (0 Bft) S 177 0 min 0,000 mm 0,0 UV-I 0 W/m 12,6 C 14,6 C 0,0 km/h (0 Bft) 100,00 %
05.07.2016 01:46 14,5 C 89 % 1017,4 hPa 0,0 l/m 0,0 km/h (0 Bft) S 177 0 min 0,000 mm 0,0 UV-I 0 W/m 12,7 C 14,5 C 0,0 km/h (0 Bft) 100,00 %
05.07.2016 01:48 14,4 C 89 % 1017,4 hPa 0,0 l/m 0,0 km/h (0 Bft) S 177 0 min 0,000 mm 0,0 UV-I 0 W/m 12,6 C 14,4 C 0,0 km/h (0 Bft) 100,00 %
05.07.2016 01:50 14,3 C 89 % 1017,3 hPa 0,0 l/m 0,0 km/h (0 Bft) S 177 0 min 0,000 mm 0,0 UV-I 0 W/m 12,5 C 14,3 C 0,0 km/h (0 Bft) 100,00 %
05.07.2016 01:52 14,3 C 90 % 1017,3 hPa 0,0 l/m 0,0 km/h (0 Bft) S 177 0 min 0,000 mm 0,0 UV-I 0 W/m 12,7 C 14,3 C 0,0 km/h (0 Bft) 100,00 %
05.07.2016 01:54 14,3 C 90 % 1017,3 hPa 0,0 l/m 0,0 km/h (0 Bft) S 177 0 min 0,000 mm 0,0 UV-I 0 W/m 12,7 C 14,3 C 1,6 km/h (1 Bft) 100,00 %
05.07.2016 01:56 14,3 C 90 % 1017,4 hPa 0,0 l/m 0,3 km/h (0 Bft) S 177 0 min 0,000 mm 0,0 UV-I 0 W/m 12,7 C 14,3 C 1,6 km/h (1 Bft) 97,87 %
05.07.2016 01:58 14,3 C 89 % 1017,4 hPa 0,0 l/m 2,0 km/h (1 Bft) S 177 0 min 0,000 mm 0,0 UV-I 0 W/m 12,5 C 14,3 C 3,2 km/h (1 Bft) 100,00 %
05.07.2016 02:00 14,3 C 90 % 1017,3 hPa 0,0 l/m 3,1 km/h (1 Bft) S 177 0 min 0,000 mm 0,0 UV-I 0 W/m 12,7 C 14,3 C 3,2 km/h (1 Bft) 100,00 %
05.07.2016 02:02 14,2 C 90 % 1017,3 hPa 0,0 l/m 2,1 km/h (1 Bft) S 177 0 min 0,000 mm 0,0 UV-I 0 W/m 12,6 C 14,2 C 3,2 km/h (1 Bft) 97,87 %
05.07.2016 02:04 14,1 C 90 % 1017,3 hPa 0,0 l/m 1,3 km/h (1 Bft) S 177 0 min 0,000 mm 0,0 UV-I 0 W/m 12,5 C 14,1 C 3,2 km/h (1 Bft) 100,00 %
05.07.2016 02:06 13,9 C 90 % 1017,3 hPa 0,0 l/m 0,3 km/h (0 Bft) S 177 0 min 0,000 mm 0,0 UV-I 0 W/m 12,3 C 13,9 C 1,6 km/h (1 Bft) 100,00 %
05.07.2016 02:08 13,9 C 91 % 1017,3 hPa 0,0 l/m 0,8 km/h (0 Bft) S 177 0 min 0,000 mm 0,0 UV-I 0 W/m 12,5 C 13,9 C 1,6 km/h (1 Bft) 100,00 %
05.07.2016 02:10 13,9 C 91 % 1017,3 hPa 0,0 l/m 1,1 km/h (1 Bft) S 177 0 min 0,000 mm 0,0 UV-I 0 W/m 12,5 C 13,9 C 1,6 km/h (1 Bft) 100,00 %
05.07.2016 02:12 13,9 C 91 % 1017,2 hPa 0,0 l/m 1,6 km/h (1 Bft) S 177 0 min 0,000 mm 0,0 UV-I 0 W/m 12,5 C 13,9 C 3,2 km/h (1 Bft) 97,92 %
05.07.2016 02:14 13,9 C 91 % 1017,3 hPa 0,0 l/m 1,0 km/h (0 Bft) S 177 0 min 0,000 mm 0,0 UV-I 0 W/m 12,5 C 13,9 C 1,6 km/h (1 Bft) 100,00 %
05.07.2016 02:16 13,9 C 91 % 1017,3 hPa 0,0 l/m 0,8 km/h (0 Bft) S 177 0 min 0,000 mm 0,0 UV-I 0 W/m 12,5 C 13,9 C 1,6 km/h (1 Bft) 100,00 %
05.07.2016 02:18 13,9 C 92 % 1017,3 hPa 0,0 l/m 1,7 km/h (1 Bft) S 177 0 min 0,000 mm 0,0 UV-I 0 W/m 12,6 C 13,9 C 3,2 km/h (1 Bft) 100,00 %
05.07.2016 02:20 13,9 C 91 % 1017,2 hPa 0,0 l/m 0,6 km/h (0 Bft) S 177 0 min 0,000 mm 0,0 UV-I 0 W/m 12,5 C 13,9 C 1,6 km/h (1 Bft) 100,00 %
05.07.2016 02:22 13,8 C 92 % 1017,3 hPa 0,0 l/m 0,0 km/h (0 Bft) S 177 0 min 0,000 mm 0,0 UV-I 0 W/m 12,5 C 13,8 C 0,0 km/h (0 Bft) 100,00 %
05.07.2016 02:24 13,7 C 92 % 1017,3 hPa 0,0 l/m 0,0 km/h (0 Bft) S 177 0 min 0,000 mm 0,0 UV-I 0 W/m 12,4 C 13,7 C 0,0 km/h (0 Bft) 100,00 %
05.07.2016 02:26 13,7 C 92 % 1017,2 hPa 0,0 l/m 0,0 km/h (0 Bft) S 177 0 min 0,000 mm 0,0 UV-I 0 W/m 12,4 C 13,7 C 1,6 km/h (1 Bft) 100,00 %
05.07.2016 02:28 13,7 C 93 % 1017,3 hPa 0,0 l/m 0,0 km/h (0 Bft) S 177 0 min 0,000 mm 0,0 UV-I 0 W/m 12,6 C 13,7 C 0,0 km/h (0 Bft) 97,87 %
05.07.2016 02:30 13,7 C 93 % 1017,2 hPa 0,0 l/m 0,0 km/h (0 Bft) S 177 0 min 0,000 mm 0,0 UV-I 0 W/m 12,6 C 13,7 C 0,0 km/h (0 Bft) 97,96 %
05.07.2016 02:32 13,8 C 93 % 1017,2 hPa 0,0 l/m 0,0 km/h (0 Bft) S 177 0 min 0,000 mm 0,0 UV-I 0 W/m 12,7 C 13,8 C 0,0 km/h (0 Bft) 97,87 %
05.07.2016 02:34 13,8 C 92 % 1017,2 hPa 0,0 l/m 0,0 km/h (0 Bft) S 177 0 min 0,000 mm 0,0 UV-I 0 W/m 12,5 C 13,8 C 0,0 km/h (0 Bft) 97,87 %
05.07.2016 02:36 13,8 C 92 % 1017,2 hPa 0,0 l/m 0,0 km/h (0 Bft) S 177 0 min 0,000 mm 0,0 UV-I 0 W/m 12,5 C 13,8 C 0,0 km/h (0 Bft) 96,00 %
05.07.2016 02:38 13,8 C 92 % 1017,1 hPa 0,0 l/m 0,0 km/h (0 Bft) S 177 0 min 0,000 mm 0,0 UV-I 0 W/m 12,5 C 13,8 C 0,0 km/h (0 Bft) 95,74 %
05.07.2016 02:40 13,8 C 91 % 1017,1 hPa 0,0 l/m 0,0 km/h (0 Bft) S 177 0 min 0,000 mm 0,0 UV-I 0 W/m 12,4 C 13,8 C 0,0 km/h (0 Bft) 97,96 %
05.07.2016 02:42 13,8 C 91 % 1017,2 hPa 0,0 l/m 0,0 km/h (0 Bft) S 177 0 min 0,000 mm 0,0 UV-I 0 W/m 12,4 C 13,8 C 0,0 km/h (0 Bft) 97,87 %
05.07.2016 02:44 13,8 C 91 % 1017,1 hPa 0,0 l/m 0,0 km/h (0 Bft) S 177 0 min 0,000 mm 0,0 UV-I 0 W/m 12,4 C 13,8 C 0,0 km/h (0 Bft) 97,87 %
05.07.2016 02:46 13,8 C 92 % 1017,0 hPa 0,0 l/m 0,0 km/h (0 Bft) S 177 0 min 0,000 mm 0,0 UV-I 0 W/m 12,5 C 13,8 C 0,0 km/h (0 Bft) 97,87 %
05.07.2016 02:48 13,8 C 92 % 1017,0 hPa 0,0 l/m 0,0 km/h (0 Bft) S 177 0 min 0,000 mm 0,0 UV-I 0 W/m 12,5 C 13,8 C 0,0 km/h (0 Bft) 97,22 %
05.07.2016 02:50 13,8 C 92 % 1017,0 hPa 0,0 l/m 0,0 km/h (0 Bft) S 177 0 min 0,000 mm 0,0 UV-I 0 W/m 12,5 C 13,8 C 0,0 km/h (0 Bft) 94,23 %
05.07.2016 02:52 13,8 C 92 % 1017,0 hPa 0,0 l/m 0,0 km/h (0 Bft) S 177 0 min 0,000 mm 0,0 UV-I 0 W/m 12,5 C 13,8 C 0,0 km/h (0 Bft) 98,04 %
05.07.2016 02:54 13,8 C 92 % 1017,0 hPa 0,0 l/m 0,0 km/h (0 Bft) S 177 0 min 0,000 mm 0,0 UV-I 0 W/m 12,5 C 13,8 C 0,0 km/h (0 Bft) 95,74 %
05.07.2016 02:56 13,8 C 92 % 1017,0 hPa 0,0 l/m 0,0 km/h (0 Bft) S 177 0 min 0,000 mm 0,0 UV-I 0 W/m 12,5 C 13,8 C 0,0 km/h (0 Bft) 97,14 %
05.07.2016 02:58 13,8 C 91 % 1017,1 hPa 0,0 l/m 0,0 km/h (0 Bft) S 177 0 min 0,000 mm 0,0 UV-I 0 W/m 12,4 C 13,8 C 0,0 km/h (0 Bft) 96,00 %
05.07.2016 03:00 13,7 C 91 % 1017,0 hPa 0,0 l/m 0,3 km/h (0 Bft) S 177 0 min 0,000 mm 0,0 UV-I 0 W/m 12,3 C 13,7 C 1,6 km/h (1 Bft) 97,87 %
05.07.2016 03:02 13,7 C 91 % 1017,0 hPa 0,0 l/m 0,4 km/h (0 Bft) S 177 0 min 0,000 mm 0,0 UV-I 0 W/m 12,3 C 13,7 C 1,6 km/h (1 Bft) 97,92 %
05.07.2016 03:04 13,7 C 91 % 1017,0 hPa 0,0 l/m 0,1 km/h (0 Bft) S 177 0 min 0,000 mm 0,0 UV-I 0 W/m 12,3 C 13,7 C 1,6 km/h (1 Bft) 97,87 %
05.07.2016 03:06 13,6 C 91 % 1017,0 hPa 0,0 l/m 0,0 km/h (0 Bft) S 177 0 min 0,000 mm 0,0 UV-I 0 W/m 12,2 C 13,6 C 0,0 km/h (0 Bft) 97,87 %
05.07.2016 03:08 13,6 C 92 % 1017,0 hPa 0,0 l/m 0,0 km/h (0 Bft) S 177 0 min 0,000 mm 0,0 UV-I 0 W/m 12,3 C 13,6 C 1,6 km/h (1 Bft) 95,74 %
05.07.2016 03:10 13,7 C 91 % 1017,0 hPa 0,0 l/m 0,0 km/h (0 Bft) S 177 0 min 0,000 mm 0,0 UV-I 0 W/m 12,3 C 13,7 C 0,0 km/h (0 Bft) 100,00 %
05.07.2016 03:12 13,7 C 91 % 1017,0 hPa 0,0 l/m 0,0 km/h (0 Bft) S 177 0 min 0,000 mm 0,0 UV-I 0 W/m 12,3 C 13,7 C 0,0 km/h (0 Bft) 100,00 %
05.07.2016 03:14 13,7 C 91 % 1016,9 hPa 0,0 l/m 0,0 km/h (0 Bft) S 177 0 min 0,000 mm 0,0 UV-I 0 W/m 12,3 C 13,7 C 0,0 km/h (0 Bft) 100,00 %
05.07.2016 03:16 13,7 C 91 % 1017,0 hPa 0,0 l/m 0,0 km/h (0 Bft) S 177 0 min 0,000 mm 0,0 UV-I 0 W/m 12,3 C 13,7 C 0,0 km/h (0 Bft) 100,00 %
05.07.2016 03:18 13,7 C 91 % 1017,0 hPa 0,0 l/m 0,0 km/h (0 Bft) S 177 0 min 0,000 mm 0,0 UV-I 0 W/m 12,3 C 13,7 C 0,0 km/h (0 Bft) 98,00 %
05.07.2016 03:20 13,6 C 91 % 1017,0 hPa 0,0 l/m 0,3 km/h (0 Bft) S 177 0 min 0,000 mm 0,0 UV-I 0 W/m 12,2 C 13,6 C 1,6 km/h (1 Bft) 100,00 %
05.07.2016 03:22 13,6 C 91 % 1016,9 hPa 0,0 l/m 0,0 km/h (0 Bft) S 177 0 min 0,000 mm 0,0 UV-I 0 W/m 12,2 C 13,6 C 0,0 km/h (0 Bft) 97,87 %
05.07.2016 03:24 13,4 C 92 % 1016,9 hPa 0,0 l/m 0,0 km/h (0 Bft) S 177 0 min 0,000 mm 0,0 UV-I 0 W/m 12,1 C 13,4 C 0,0 km/h (0 Bft) 100,00 %
05.07.2016 03:26 13,4 C 92 % 1016,8 hPa 0,0 l/m 0,0 km/h (0 Bft) S 177 0 min 0,000 mm 0,0 UV-I 0 W/m 12,1 C 13,4 C 0,0 km/h (0 Bft) 100,00 %
05.07.2016 03:28 13,4 C 92 % 1016,8 hPa 0,0 l/m 0,0 km/h (0 Bft) S 177 0 min 0,000 mm 0,0 UV-I 0 W/m 12,1 C 13,4 C 0,0 km/h (0 Bft) 100,00 %
05.07.2016 03:30 13,3 C 92 % 1016,7 hPa 0,0 l/m 0,0 km/h (0 Bft) S 177 0 min 0,000 mm 0,0 UV-I 0 W/m 12,0 C 13,3 C 0,0 km/h (0 Bft) 100,00 %
05.07.2016 03:32 13,3 C 92 % 1016,8 hPa 0,0 l/m 0,0 km/h (0 Bft) S 177 0 min 0,000 mm 0,0 UV-I 0 W/m 12,0 C 13,3 C 0,0 km/h (0 Bft) 100,00 %
05.07.2016 03:34 13,3 C 92 % 1016,8 hPa 0,0 l/m 0,0 km/h (0 Bft) S 177 0 min 0,000 mm 0,0 UV-I 0 W/m 12,0 C 13,3 C 0,0 km/h (0 Bft) 100,00 %
05.07.2016 03:36 13,3 C 92 % 1016,7 hPa 0,0 l/m 0,0 km/h (0 Bft) S 177 0 min 0,000 mm 0,0 UV-I 0 W/m 12,0 C 13,3 C 0,0 km/h (0 Bft) 100,00 %
05.07.2016 03:38 13,3 C 92 % 1016,7 hPa 0,0 l/m 0,0 km/h (0 Bft) S 177 0 min 0,000 mm 0,0 UV-I 0 W/m 12,0 C 13,3 C 0,0 km/h (0 Bft) 100,00 %
05.07.2016 03:40 13,3 C 92 % 1016,7 hPa 0,0 l/m 0,0 km/h (0 Bft) S 177 0 min 0,000 mm 0,0 UV-I 0 W/m 12,0 C 13,3 C 0,0 km/h (0 Bft) 100,00 %
05.07.2016 03:42 13,2 C 92 % 1016,7 hPa 0,0 l/m 0,0 km/h (0 Bft) S 177 0 min 0,000 mm 0,0 UV-I 0 W/m 11,9 C 13,2 C 1,6 km/h (1 Bft) 100,00 %
05.07.2016 03:44 13,2 C 92 % 1016,6 hPa 0,0 l/m 0,0 km/h (0 Bft) S 177 0 min 0,000 mm 0,0 UV-I 0 W/m 11,9 C 13,2 C 0,0 km/h (0 Bft) 100,00 %
05.07.2016 03:46 13,1 C 92 % 1016,6 hPa 0,0 l/m 0,0 km/h (0 Bft) S 177 0 min 0,000 mm 0,0 UV-I 0 W/m 11,8 C 13,1 C 0,0 km/h (0 Bft) 100,00 %
05.07.2016 03:48 13,2 C 93 % 1016,6 hPa 0,0 l/m 0,0 km/h (0 Bft) S 177 0 min 0,000 mm 0,0 UV-I 0 W/m 12,1 C 13,2 C 0,0 km/h (0 Bft) 100,00 %
05.07.2016 03:50 13,2 C 93 % 1016,6 hPa 0,0 l/m 0,0 km/h (0 Bft) S 177 0 min 0,000 mm 0,0 UV-I 0 W/m 12,1 C 13,2 C 1,6 km/h (1 Bft) 100,00 %
05.07.2016 03:52 13,2 C 93 % 1016,6 hPa 0,0 l/m 0,0 km/h (0 Bft) S 177 0 min 0,000 mm 0,0 UV-I 0 W/m 12,1 C 13,2 C 1,6 km/h (1 Bft) 100,00 %
05.07.2016 03:54 13,2 C 93 % 1016,5 hPa 0,0 l/m 0,3 km/h (0 Bft) S 177 0 min 0,000 mm 0,0 UV-I 0 W/m 12,1 C 13,2 C 1,6 km/h (1 Bft) 100,00 %
05.07.2016 03:56 13,3 C 93 % 1016,5 hPa 0,0 l/m 0,6 km/h (0 Bft) S 177 0 min 0,000 mm 0,0 UV-I 0 W/m 12,2 C 13,3 C 3,2 km/h (1 Bft) 100,00 %
05.07.2016 03:58 13,3 C 93 % 1016,5 hPa 0,0 l/m 0,2 km/h (0 Bft) S 177 0 min 0,000 mm 0,0 UV-I 0 W/m 12,2 C 13,3 C 1,6 km/h (1 Bft) 97,87 %
05.07.2016 04:00 13,2 C 92 % 1016,5 hPa 0,0 l/m 0,0 km/h (0 Bft) S 177 0 min 0,000 mm 0,0 UV-I 0 W/m 11,9 C 13,2 C 1,6 km/h (1 Bft) 100,00 %
05.07.2016 04:02 13,1 C 92 % 1016,4 hPa 0,0 l/m 0,0 km/h (0 Bft) S 177 0 min 0,000 mm 0,0 UV-I 0 W/m 11,8 C 13,1 C 0,0 km/h (0 Bft) 100,00 %
05.07.2016 04:04 13,1 C 92 % 1016,3 hPa 0,0 l/m 0,1 km/h (0 Bft) S 177 0 min 0,000 mm 0,0 UV-I 0 W/m 11,8 C 13,1 C 1,6 km/h (1 Bft) 100,00 %
05.07.2016 04:06 13,1 C 93 % 1016,3 hPa 0,0 l/m 0,1 km/h (0 Bft) S 177 0 min 0,000 mm 0,0 UV-I 0 W/m 12,0 C 13,1 C 1,6 km/h (1 Bft) 97,87 %
05.07.2016 04:08 13,1 C 93 % 1016,2 hPa 0,0 l/m 0,1 km/h (0 Bft) S 177 0 min 0,000 mm 0,0 UV-I 0 W/m 12,0 C 13,1 C 1,6 km/h (1 Bft) 100,00 %
05.07.2016 04:10 13,1 C 93 % 1016,2 hPa 0,0 l/m 0,3 km/h (0 Bft) S 177 0 min 0,000 mm 0,0 UV-I 0 W/m 12,0 C 13,1 C 1,6 km/h (1 Bft) 100,00 %
05.07.2016 04:12 12,9 C 93 % 1016,1 hPa 0,0 l/m 0,2 km/h (0 Bft) S 177 0 min 0,000 mm 0,0 UV-I 0 W/m 11,8 C 12,9 C 1,6 km/h (1 Bft) 100,00 %
05.07.2016 04:14 12,8 C 93 % 1016,0 hPa 0,0 l/m 0,0 km/h (0 Bft) S 177 0 min 0,000 mm 0,0 UV-I 0 W/m 11,7 C 12,8 C 0,0 km/h (0 Bft) 100,00 %
05.07.2016 04:16 12,8 C 93 % 1016,0 hPa 0,0 l/m 0,0 km/h (0 Bft) S 177 0 min 0,000 mm 0,0 UV-I 0 W/m 11,7 C 12,8 C 0,0 km/h (0 Bft) 97,87 %
05.07.2016 04:18 12,9 C 94 % 1016,0 hPa 0,0 l/m 0,0 km/h (0 Bft) S 177 0 min 0,000 mm 0,0 UV-I 0 W/m 12,0 C 12,9 C 0,0 km/h (0 Bft) 100,00 %
05.07.2016 04:20 12,9 C 94 % 1016,0 hPa 0,0 l/m 0,0 km/h (0 Bft) S 177 0 min 0,000 mm 0,0 UV-I 0 W/m 12,0 C 12,9 C 0,0 km/h (0 Bft) 100,00 %
05.07.2016 04:22 12,9 C 94 % 1015,9 hPa 0,0 l/m 0,0 km/h (0 Bft) S 177 0 min 0,000 mm 0,0 UV-I 0 W/m 12,0 C 12,9 C 0,0 km/h (0 Bft) 100,00 %
05.07.2016 04:24 12,9 C 93 % 1015,9 hPa 0,0 l/m 0,0 km/h (0 Bft) S 177 0 min 0,000 mm 0,0 UV-I 0 W/m 11,8 C 12,9 C 0,0 km/h (0 Bft) 97,87 %
05.07.2016 04:26 12,9 C 93 % 1015,9 hPa 0,0 l/m 0,0 km/h (0 Bft) S 177 0 min 0,000 mm 0,0 UV-I 0 W/m 11,8 C 12,9 C 0,0 km/h (0 Bft) 97,87 %
05.07.2016 04:28 12,8 C 93 % 1015,9 hPa 0,0 l/m 0,0 km/h (0 Bft) S 177 0 min 0,000 mm 0,0 UV-I 0 W/m 11,7 C 12,8 C 0,0 km/h (0 Bft) 97,87 %
05.07.2016 04:30 12,8 C 93 % 1015,9 hPa 0,0 l/m 0,2 km/h (0 Bft) S 177 0 min 0,000 mm 0,0 UV-I 0 W/m 11,7 C 12,8 C 1,6 km/h (1 Bft) 97,87 %
05.07.2016 04:32 12,8 C 93 % 1015,9 hPa 0,0 l/m 0,3 km/h (0 Bft) S 177 0 min 0,000 mm 0,0 UV-I 0 W/m 11,7 C 12,8 C 1,6 km/h (1 Bft) 97,87 %
05.07.2016 04:34 12,8 C 93 % 1015,9 hPa 0,0 l/m 0,4 km/h (0 Bft) S 177 0 min 0,000 mm 0,0 UV-I 0 W/m 11,7 C 12,8 C 1,6 km/h (1 Bft) 97,87 %
05.07.2016 04:36 12,8 C 93 % 1015,9 hPa 0,0 l/m 0,4 km/h (0 Bft) S 177 0 min 0,000 mm 0,0 UV-I 0 W/m 11,7 C 12,8 C 1,6 km/h (1 Bft) 97,87 %
05.07.2016 04:38 12,8 C 93 % 1015,9 hPa 0,0 l/m 0,0 km/h (0 Bft) S 177 0 min 0,000 mm 0,0 UV-I 0 W/m 11,7 C 12,8 C 0,0 km/h (0 Bft) 95,74 %
05.07.2016 04:40 12,7 C 93 % 1015,8 hPa 0,0 l/m 0,0 km/h (0 Bft) S 177 0 min 0,000 mm 0,0 UV-I 0 W/m 11,6 C 12,7 C 0,0 km/h (0 Bft) 95,74 %
05.07.2016 04:42 12,7 C 93 % 1015,8 hPa 0,0 l/m 0,0 km/h (0 Bft) S 177 0 min 0,000 mm 0,0 UV-I 0 W/m 11,6 C 12,7 C 0,0 km/h (0 Bft) 97,87 %
05.07.2016 04:44 12,7 C 93 % 1015,8 hPa 0,0 l/m 0,0 km/h (0 Bft) S 177 0 min 0,000 mm 0,0 UV-I 0 W/m 11,6 C 12,7 C 0,0 km/h (0 Bft) 97,87 %
05.07.2016 04:46 12,7 C 93 % 1015,8 hPa 0,0 l/m 0,0 km/h (0 Bft) S 177 0 min 0,000 mm 0,0 UV-I 0 W/m 11,6 C 12,7 C 0,0 km/h (0 Bft) 97,87 %
05.07.2016 04:48 12,7 C 93 % 1015,8 hPa 0,0 l/m 0,0 km/h (0 Bft) S 177 0 min 0,000 mm 0,0 UV-I 0 W/m 11,6 C 12,7 C 0,0 km/h (0 Bft) 94,44 %
05.07.2016 04:50 12,6 C 93 % 1015,8 hPa 0,0 l/m 0,0 km/h (0 Bft) S 177 0 min 0,000 mm 0,0 UV-I 0 W/m 11,5 C 12,6 C 0,0 km/h (0 Bft) 97,87 %
05.07.2016 04:52 12,6 C 93 % 1015,9 hPa 0,0 l/m 0,0 km/h (0 Bft) S 177 0 min 0,000 mm 0,0 UV-I 0 W/m 11,5 C 12,6 C 0,0 km/h (0 Bft) 98,00 %
05.07.2016 04:54 12,6 C 94 % 1015,9 hPa 0,0 l/m 0,1 km/h (0 Bft) S 177 0 min 0,000 mm 0,0 UV-I 0 W/m 11,7 C 12,6 C 1,6 km/h (1 Bft) 97,87 %
05.07.2016 04:56 12,6 C 93 % 1015,9 hPa 0,0 l/m 0,1 km/h (0 Bft) S 177 0 min 0,000 mm 0,0 UV-I 0 W/m 11,5 C 12,6 C 1,6 km/h (1 Bft) 96,00 %
05.07.2016 04:58 12,6 C 93 % 1015,8 hPa 0,0 l/m 0,0 km/h (0 Bft) S 177 0 min 0,000 mm 0,0 UV-I 0 W/m 11,5 C 12,6 C 0,0 km/h (0 Bft) 97,87 %
05.07.2016 05:00 12,6 C 93 % 1015,8 hPa 0,0 l/m 0,0 km/h (0 Bft) S 177 0 min 0,000 mm 0,0 UV-I 0 W/m 11,5 C 12,6 C 0,0 km/h (0 Bft) 100,00 %
05.07.2016 05:02 12,5 C 93 % 1015,8 hPa 0,0 l/m 0,0 km/h (0 Bft) S 177 0 min 0,000 mm 0,0 UV-I 0 W/m 11,4 C 12,5 C 0,0 km/h (0 Bft) 98,00 %
05.07.2016 05:04 12,5 C 93 % 1015,8 hPa 0,0 l/m 0,0 km/h (0 Bft) S 177 0 min 0,000 mm 0,0 UV-I 0 W/m 11,4 C 12,5 C 0,0 km/h (0 Bft) 97,87 %
05.07.2016 05:06 12,6 C 93 % 1015,8 hPa 0,0 l/m 0,0 km/h (0 Bft) S 177 0 min 0,000 mm 0,0 UV-I 0 W/m 11,5 C 12,6 C 0,0 km/h (0 Bft) 100,00 %
05.07.2016 05:08 12,6 C 93 % 1015,7 hPa 0,0 l/m 0,0 km/h (0 Bft) S 177 0 min 0,000 mm 0,0 UV-I 5 W/m 11,5 C 12,6 C 0,0 km/h (0 Bft) 97,87 %
05.07.2016 05:10 12,6 C 93 % 1015,8 hPa 0,0 l/m 0,0 km/h (0 Bft) S 177 0 min 0,000 mm 0,0 UV-I 5 W/m 11,5 C 12,6 C 0,0 km/h (0 Bft) 100,00 %
05.07.2016 05:12 12,6 C 93 % 1015,8 hPa 0,0 l/m 0,0 km/h (0 Bft) S 177 0 min 0,000 mm 0,0 UV-I 5 W/m 11,5 C 12,6 C 0,0 km/h (0 Bft) 97,87 %
05.07.2016 05:14 12,6 C 93 % 1015,8 hPa 0,0 l/m 0,0 km/h (0 Bft) S 177 0 min 0,000 mm 0,0 UV-I 6 W/m 11,5 C 12,6 C 0,0 km/h (0 Bft) 100,00 %
05.07.2016 05:16 12,6 C 93 % 1015,8 hPa 0,0 l/m 0,0 km/h (0 Bft) S 177 0 min 0,000 mm 0,0 UV-I 7 W/m 11,5 C 12,6 C 0,0 km/h (0 Bft) 100,00 %
05.07.2016 05:18 12,5 C 93 % 1015,8 hPa 0,0 l/m 0,0 km/h (0 Bft) S 177 0 min 0,000 mm 0,0 UV-I 7 W/m 11,4 C 12,5 C 0,0 km/h (0 Bft) 97,87 %
05.07.2016 05:20 12,5 C 93 % 1015,8 hPa 0,0 l/m 0,0 km/h (0 Bft) S 177 0 min 0,000 mm 0,0 UV-I 9 W/m 11,4 C 12,5 C 0,0 km/h (0 Bft) 97,87 %
05.07.2016 05:22 12,5 C 93 % 1015,8 hPa 0,0 l/m 0,0 km/h (0 Bft) S 177 0 min 0,000 mm 0,0 UV-I 9 W/m 11,4 C 12,5 C 0,0 km/h (0 Bft) 100,00 %
05.07.2016 05:24 12,5 C 93 % 1015,8 hPa 0,0 l/m 0,0 km/h (0 Bft) S 177 2 min 0,000 mm 0,0 UV-I 11 W/m 11,4 C 12,5 C 0,0 km/h (0 Bft) 97,92 %
05.07.2016 05:26 12,5 C 93 % 1015,8 hPa 0,0 l/m 0,0 km/h (0 Bft) S 177 0 min 0,000 mm 0,0 UV-I 11 W/m 11,4 C 12,5 C 0,0 km/h (0 Bft) 97,87 %
05.07.2016 05:28 12,4 C 93 % 1015,7 hPa 0,0 l/m 0,0 km/h (0 Bft) S 177 0 min 0,000 mm 0,0 UV-I 11 W/m 11,3 C 12,4 C 0,0 km/h (0 Bft) 97,87 %
05.07.2016 05:30 12,4 C 93 % 1015,7 hPa 0,0 l/m 0,0 km/h (0 Bft) S 177 0 min 0,000 mm 0,0 UV-I 12 W/m 11,3 C 12,4 C 0,0 km/h (0 Bft) 97,87 %
05.07.2016 05:32 12,4 C 93 % 1015,7 hPa 0,0 l/m 0,0 km/h (0 Bft) S 177 0 min 0,000 mm 0,0 UV-I 12 W/m 11,3 C 12,4 C 0,0 km/h (0 Bft) 100,00 %
05.07.2016 05:34 12,4 C 93 % 1015,7 hPa 0,0 l/m 0,0 km/h (0 Bft) S 177 0 min 0,000 mm 0,0 UV-I 13 W/m 11,3 C 12,4 C 0,0 km/h (0 Bft) 97,87 %
05.07.2016 05:36 12,4 C 93 % 1015,7 hPa 0,0 l/m 0,0 km/h (0 Bft) S 177 0 min 0,000 mm 0,0 UV-I 14 W/m 11,3 C 12,4 C 0,0 km/h (0 Bft) 100,00 %
05.07.2016 05:38 12,4 C 93 % 1015,7 hPa 0,0 l/m 0,0 km/h (0 Bft) S 177 0 min 0,000 mm 0,0 UV-I 14 W/m 11,3 C 12,4 C 0,0 km/h (0 Bft) 97,87 %
05.07.2016 05:40 12,5 C 93 % 1015,8 hPa 0,0 l/m 0,0 km/h (0 Bft) S 177 0 min 0,000 mm 0,0 UV-I 16 W/m 11,4 C 12,5 C 0,0 km/h (0 Bft) 97,87 %
05.07.2016 05:42 12,5 C 93 % 1015,8 hPa 0,0 l/m 0,1 km/h (0 Bft) S 177 0 min 0,000 mm 0,0 UV-I 16 W/m 11,4 C 12,5 C 1,6 km/h (1 Bft) 100,00 %
05.07.2016 05:44 12,5 C 93 % 1015,7 hPa 0,0 l/m 0,6 km/h (0 Bft) S 177 0 min 0,000 mm 0,0 UV-I 18 W/m 11,4 C 12,5 C 1,6 km/h (1 Bft) 100,00 %
05.07.2016 05:46 12,6 C 93 % 1015,8 hPa 0,0 l/m 0,5 km/h (0 Bft) S 177 0 min 0,000 mm 0,0 UV-I 18 W/m 11,5 C 12,6 C 1,6 km/h (1 Bft) 100,00 %
05.07.2016 05:48 12,6 C 93 % 1015,8 hPa 0,0 l/m 1,7 km/h (1 Bft) S 177 0 min 0,000 mm 0,0 UV-I 18 W/m 11,5 C 12,6 C 3,2 km/h (1 Bft) 97,87 %
05.07.2016 05:50 12,6 C 93 % 1015,8 hPa 0,0 l/m 1,0 km/h (0 Bft) S 177 0 min 0,000 mm 0,0 UV-I 19 W/m 11,5 C 12,6 C 3,2 km/h (1 Bft) 93,62 %
05.07.2016 05:52 12,7 C 94 % 1015,8 hPa 0,0 l/m 0,0 km/h (0 Bft) S 177 0 min 0,000 mm 0,0 UV-I 19 W/m 11,8 C 12,7 C 0,0 km/h (0 Bft) 100,00 %
05.07.2016 05:54 12,7 C 94 % 1015,8 hPa 0,0 l/m 0,0 km/h (0 Bft) S 177 0 min 0,000 mm 0,0 UV-I 20 W/m 11,8 C 12,7 C 0,0 km/h (0 Bft) 97,87 %
05.07.2016 05:56 12,7 C 94 % 1015,8 hPa 0,0 l/m 0,0 km/h (0 Bft) S 177 0 min 0,000 mm 0,0 UV-I 21 W/m 11,8 C 12,7 C 0,0 km/h (0 Bft) 97,87 %
05.07.2016 05:58 12,8 C 94 % 1015,8 hPa 0,0 l/m 0,0 km/h (0 Bft) S 177 0 min 0,000 mm 0,0 UV-I 21 W/m 11,9 C 12,8 C 0,0 km/h (0 Bft) 100,00 %
05.07.2016 06:00 12,8 C 94 % 1015,7 hPa 0,0 l/m 0,0 km/h (0 Bft) S 177 0 min 0,000 mm 0,0 UV-I 21 W/m 11,9 C 12,8 C 0,0 km/h (0 Bft) 97,87 %
05.07.2016 06:02 12,8 C 94 % 1015,8 hPa 0,0 l/m 0,3 km/h (0 Bft) S 177 0 min 0,000 mm 0,0 UV-I 22 W/m 11,9 C 12,8 C 3,2 km/h (1 Bft) 100,00 %
05.07.2016 06:04 12,8 C 94 % 1015,8 hPa 0,0 l/m 1,0 km/h (0 Bft) S 177 0 min 0,000 mm 0,0 UV-I 23 W/m 11,9 C 12,8 C 1,6 km/h (1 Bft) 100,00 %
05.07.2016 06:06 12,9 C 94 % 1015,8 hPa 0,0 l/m 1,0 km/h (0 Bft) S 177 0 min 0,000 mm 0,0 UV-I 23 W/m 12,0 C 12,9 C 1,6 km/h (1 Bft) 95,83 %
05.07.2016 06:08 12,9 C 94 % 1015,8 hPa 0,0 l/m 1,7 km/h (1 Bft) S 177 0 min 0,000 mm 0,0 UV-I 24 W/m 12,0 C 12,9 C 3,2 km/h (1 Bft) 95,74 %
05.07.2016 06:10 12,9 C 94 % 1015,9 hPa 0,0 l/m 1,6 km/h (1 Bft) S 177 0 min 0,000 mm 0,0 UV-I 25 W/m 12,0 C 12,9 C 3,2 km/h (1 Bft) 97,87 %
05.07.2016 06:12 12,9 C 94 % 1015,8 hPa 0,0 l/m 1,0 km/h (0 Bft) S 177 0 min 0,000 mm 0,0 UV-I 25 W/m 12,0 C 12,9 C 1,6 km/h (1 Bft) 100,00 %
05.07.2016 06:14 12,9 C 94 % 1015,8 hPa 0,0 l/m 0,7 km/h (0 Bft) S 177 0 min 0,000 mm 0,0 UV-I 25 W/m 12,0 C 12,9 C 3,2 km/h (1 Bft) 97,87 %
05.07.2016 06:16 13,0 C 94 % 1015,8 hPa 0,0 l/m 1,3 km/h (1 Bft) S 177 0 min 0,000 mm 0,0 UV-I 26 W/m 12,1 C 13,0 C 1,6 km/h (1 Bft) 100,00 %
05.07.2016 06:18 13,0 C 94 % 1015,8 hPa 0,0 l/m 0,3 km/h (0 Bft) S 177 0 min 0,000 mm 0,0 UV-I 26 W/m 12,1 C 13,0 C 1,6 km/h (1 Bft) 95,74 %
05.07.2016 06:20 13,1 C 94 % 1015,8 hPa 0,0 l/m 0,1 km/h (0 Bft) S 177 0 min 0,000 mm 0,0 UV-I 26 W/m 12,2 C 13,1 C 1,6 km/h (1 Bft) 93,62 %
05.07.2016 06:22 13,2 C 94 % 1015,8 hPa 0,0 l/m 0,0 km/h (0 Bft) S 177 0 min 0,000 mm 0,0 UV-I 27 W/m 12,3 C 13,2 C 0,0 km/h (0 Bft) 100,00 %
05.07.2016 06:24 13,3 C 94 % 1015,8 hPa 0,0 l/m 0,0 km/h (0 Bft) S 177 0 min 0,000 mm 0,0 UV-I 28 W/m 12,4 C 13,3 C 0,0 km/h (0 Bft) 100,00 %
05.07.2016 06:26 13,3 C 94 % 1015,7 hPa 0,0 l/m 0,0 km/h (0 Bft) S 177 0 min 0,000 mm 0,0 UV-I 28 W/m 12,4 C 13,3 C 0,0 km/h (0 Bft) 97,30 %
05.07.2016 06:28 13,4 C 93 % 1015,7 hPa 0,0 l/m 0,0 km/h (0 Bft) S 177 0 min 0,000 mm 0,0 UV-I 28 W/m 12,3 C 13,4 C 0,0 km/h (0 Bft) 97,87 %
05.07.2016 06:30 13,6 C 93 % 1015,7 hPa 0,0 l/m 0,0 km/h (0 Bft) S 177 0 min 0,000 mm 0,0 UV-I 29 W/m 12,5 C 13,6 C 1,6 km/h (1 Bft) 96,00 %
05.07.2016 06:32 13,7 C 93 % 1015,8 hPa 0,0 l/m 0,0 km/h (0 Bft) S 177 0 min 0,000 mm 0,0 UV-I 30 W/m 12,6 C 13,7 C 0,0 km/h (0 Bft) 91,49 %
05.07.2016 06:34 13,7 C 93 % 1015,8 hPa 0,0 l/m 0,0 km/h (0 Bft) S 177 0 min 0,000 mm 0,0 UV-I 30 W/m 12,6 C 13,7 C 0,0 km/h (0 Bft) 98,00 %
05.07.2016 06:36 13,8 C 93 % 1015,7 hPa 0,0 l/m 0,0 km/h (0 Bft) S 177 0 min 0,000 mm 0,0 UV-I 31 W/m 12,7 C 13,8 C 0,0 km/h (0 Bft) 97,87 %
05.07.2016 06:38 13,9 C 93 % 1015,7 hPa 0,0 l/m 0,0 km/h (0 Bft) S 177 0 min 0,000 mm 0,0 UV-I 58 W/m 12,8 C 13,9 C 0,0 km/h (0 Bft) 93,62 %
05.07.2016 06:40 14,0 C 93 % 1015,7 hPa 0,0 l/m 0,0 km/h (0 Bft) S 177 0 min 0,000 mm 0,0 UV-I 94 W/m 12,9 C 14,0 C 0,0 km/h (0 Bft) 93,62 %
05.07.2016 06:42 14,1 C 93 % 1015,7 hPa 0,0 l/m 0,0 km/h (0 Bft) S 177 0 min 0,000 mm 0,0 UV-I 106 W/m 13,0 C 14,1 C 0,0 km/h (0 Bft) 95,74 %
05.07.2016 06:44 14,2 C 93 % 1015,7 hPa 0,0 l/m 0,0 km/h (0 Bft) S 177 0 min 0,000 mm 0,0 UV-I 113 W/m 13,1 C 14,2 C 1,6 km/h (1 Bft) 95,24 %
05.07.2016 06:46 14,3 C 93 % 1015,7 hPa 0,0 l/m 0,0 km/h (0 Bft) S 177 0 min 0,000 mm 0,0 UV-I 108 W/m 13,2 C 14,3 C 0,0 km/h (0 Bft) 95,74 %
05.07.2016 06:48 14,3 C 93 % 1015,7 hPa 0,0 l/m 0,0 km/h (0 Bft) S 177 0 min 0,000 mm 0,0 UV-I 108 W/m 13,2 C 14,3 C 1,6 km/h (1 Bft) 97,87 %
05.07.2016 06:50 14,4 C 93 % 1015,7 hPa 0,0 l/m 0,0 km/h (0 Bft) S 177 0 min 0,000 mm 0,0 UV-I 119 W/m 13,3 C 14,4 C 0,0 km/h (0 Bft) 95,74 %
05.07.2016 06:52 14,5 C 92 % 1015,7 hPa 0,0 l/m 0,1 km/h (0 Bft) S 177 0 min 0,000 mm 0,0 UV-I 130 W/m 13,2 C 14,5 C 1,6 km/h (1 Bft) 97,87 %
05.07.2016 06:54 14,6 C 92 % 1015,7 hPa 0,0 l/m 0,4 km/h (0 Bft) S 177 2 min 0,000 mm 0,0 UV-I 140 W/m 13,3 C 14,6 C 1,6 km/h (1 Bft) 96,00 %
05.07.2016 06:56 14,7 C 92 % 1015,8 hPa 0,0 l/m 0,0 km/h (0 Bft) S 177 2 min 0,000 mm 0,0 UV-I 147 W/m 13,4 C 14,7 C 1,6 km/h (1 Bft) 93,62 %
05.07.2016 06:58 14,8 C 91 % 1015,8 hPa 0,0 l/m 0,0 km/h (0 Bft) S 177 2 min 0,000 mm 0,0 UV-I 152 W/m 13,3 C 14,8 C 1,6 km/h (1 Bft) 96,00 %
05.07.2016 07:00 14,9 C 91 % 1015,8 hPa 0,0 l/m 0,0 km/h (0 Bft) S 177 2 min 0,000 mm 0,0 UV-I 157 W/m 13,4 C 14,9 C 1,6 km/h (1 Bft) 94,29 %
05.07.2016 07:02 15,1 C 91 % 1015,8 hPa 0,0 l/m 0,0 km/h (0 Bft) S 177 2 min 0,025 mm 0,0 UV-I 162 W/m 13,6 C 15,1 C 1,6 km/h (1 Bft) 96,00 %
05.07.2016 07:04 15,2 C 90 % 1015,8 hPa 0,0 l/m 0,1 km/h (0 Bft) S 177 2 min 0,000 mm 0,0 UV-I 168 W/m 13,6 C 15,2 C 1,6 km/h (1 Bft) 95,74 %
05.07.2016 07:06 15,3 C 90 % 1015,8 hPa 0,0 l/m 0,1 km/h (0 Bft) S 177 2 min 0,000 mm 0,0 UV-I 173 W/m 13,7 C 15,3 C 1,6 km/h (1 Bft) 95,74 %
05.07.2016 07:08 15,3 C 90 % 1015,8 hPa 0,0 l/m 0,1 km/h (0 Bft) S 177 2 min 0,000 mm 0,0 UV-I 179 W/m 13,7 C 15,3 C 1,6 km/h (1 Bft) 100,00 %
05.07.2016 07:10 15,4 C 90 % 1015,8 hPa 0,0 l/m 0,1 km/h (0 Bft) S 177 2 min 0,000 mm 0,0 UV-I 185 W/m 13,8 C 15,4 C 1,6 km/h (1 Bft) 95,74 %
05.07.2016 07:12 15,4 C 90 % 1015,8 hPa 0,0 l/m 0,0 km/h (0 Bft) S 177 2 min 0,000 mm 0,5 UV-I 192 W/m 13,8 C 15,4 C 0,0 km/h (0 Bft) 100,00 %
05.07.2016 07:14 15,4 C 89 % 1015,8 hPa 0,0 l/m 1,5 km/h (1 Bft) S 177 2 min 0,000 mm 0,5 UV-I 197 W/m 13,6 C 15,4 C 4,8 km/h (1 Bft) 98,00 %
05.07.2016 07:16 15,6 C 89 % 1015,8 hPa 0,0 l/m 1,7 km/h (1 Bft) S 177 2 min 0,000 mm 0,5 UV-I 204 W/m 13,8 C 15,6 C 3,2 km/h (1 Bft) 97,87 %
05.07.2016 07:18 15,6 C 89 % 1015,8 hPa 0,0 l/m 3,1 km/h (1 Bft) S 173 2 min 0,000 mm 0,5 UV-I 210 W/m 13,8 C 15,6 C 4,8 km/h (1 Bft) 93,62 %
05.07.2016 07:20 15,7 C 89 % 1015,8 hPa 0,0 l/m 2,7 km/h (1 Bft) SO 135 2 min 0,000 mm 0,6 UV-I 216 W/m 13,9 C 15,7 C 6,4 km/h (2 Bft) 100,00 %
05.07.2016 07:22 15,7 C 90 % 1015,8 hPa 0,0 l/m 2,7 km/h (1 Bft) SO 135 2 min 0,000 mm 0,6 UV-I 224 W/m 14,1 C 15,7 C 4,8 km/h (1 Bft) 100,00 %
05.07.2016 07:24 15,8 C 89 % 1015,8 hPa 0,0 l/m 2,3 km/h (1 Bft) SO 130 2 min 0,000 mm 0,6 UV-I 231 W/m 14,0 C 15,8 C 4,8 km/h (1 Bft) 100,00 %
05.07.2016 07:26 15,9 C 89 % 1015,8 hPa 0,0 l/m 3,7 km/h (1 Bft) O-NO 59 2 min 0,000 mm 0,6 UV-I 239 W/m 14,1 C 15,9 C 4,8 km/h (1 Bft) 100,00 %
05.07.2016 07:28 16,0 C 88 % 1015,8 hPa 0,0 l/m 3,7 km/h (1 Bft) NO 55 2 min 0,000 mm 0,7 UV-I 246 W/m 14,0 C 16,0 C 6,4 km/h (2 Bft) 100,00 %
05.07.2016 07:30 16,1 C 88 % 1015,8 hPa 0,0 l/m 5,7 km/h (1 Bft) NO 44 2 min 0,000 mm 0,7 UV-I 253 W/m 14,1 C 16,1 C 8,0 km/h (2 Bft) 97,87 %
05.07.2016 07:32 16,2 C 89 % 1015,7 hPa 0,0 l/m 4,5 km/h (1 Bft) NO 46 2 min 0,000 mm 0,7 UV-I 257 W/m 14,4 C 16,2 C 6,4 km/h (2 Bft) 100,00 %
05.07.2016 07:34 16,2 C 88 % 1015,7 hPa 0,0 l/m 3,9 km/h (1 Bft) NO 34 2 min 0,000 mm 0,7 UV-I 257 W/m 14,2 C 16,2 C 4,8 km/h (1 Bft) 100,00 %
05.07.2016 07:36 16,3 C 88 % 1015,7 hPa 0,0 l/m 4,1 km/h (1 Bft) NO 43 2 min 0,000 mm 0,8 UV-I 254 W/m 14,3 C 16,3 C 6,4 km/h (2 Bft) 100,00 %
05.07.2016 07:38 16,4 C 88 % 1015,7 hPa 0,0 l/m 4,8 km/h (1 Bft) N-NO 32 2 min 0,000 mm 0,8 UV-I 261 W/m 14,4 C 16,4 C 6,4 km/h (2 Bft) 100,00 %
05.07.2016 07:40 16,4 C 87 % 1015,7 hPa 0,0 l/m 3,6 km/h (1 Bft) N-NO 32 2 min 0,000 mm 0,8 UV-I 278 W/m 14,2 C 16,4 C 4,8 km/h (1 Bft) 100,00 %
05.07.2016 07:42 16,6 C 87 % 1015,8 hPa 0,0 l/m 2,6 km/h (1 Bft) N-NO 32 2 min 0,000 mm 0,8 UV-I 294 W/m 14,4 C 16,6 C 4,8 km/h (1 Bft) 100,00 %
05.07.2016 07:44 16,6 C 87 % 1015,7 hPa 0,0 l/m 2,5 km/h (1 Bft) N-NO 32 2 min 0,000 mm 0,9 UV-I 301 W/m 14,4 C 16,6 C 4,8 km/h (1 Bft) 100,00 %
05.07.2016 07:46 16,7 C 88 % 1015,7 hPa 0,0 l/m 3,7 km/h (1 Bft) N-NO 24 2 min 0,000 mm 0,9 UV-I 308 W/m 14,7 C 16,7 C 8,0 km/h (2 Bft) 100,00 %
05.07.2016 07:48 16,8 C 87 % 1015,7 hPa 0,0 l/m 3,7 km/h (1 Bft) N-NO 31 2 min 0,000 mm 0,9 UV-I 314 W/m 14,6 C 16,8 C 6,4 km/h (2 Bft) 97,87 %
05.07.2016 07:50 16,8 C 86 % 1015,6 hPa 0,0 l/m 3,7 km/h (1 Bft) N-NO 25 2 min 0,000 mm 1,0 UV-I 320 W/m 14,4 C 16,8 C 6,4 km/h (2 Bft) 97,87 %
05.07.2016 07:52 16,9 C 87 % 1015,6 hPa 0,0 l/m 3,6 km/h (1 Bft) NO 47 2 min 0,000 mm 1,0 UV-I 324 W/m 14,7 C 16,9 C 4,8 km/h (1 Bft) 97,87 %
05.07.2016 07:54 16,9 C 85 % 1015,6 hPa 0,0 l/m 2,6 km/h (1 Bft) NO 35 2 min 0,000 mm 1,0 UV-I 331 W/m 14,4 C 16,9 C 4,8 km/h (1 Bft) 97,87 %
05.07.2016 07:56 16,9 C 86 % 1015,6 hPa 0,0 l/m 5,6 km/h (1 Bft) NO 42 2 min 0,000 mm 1,0 UV-I 336 W/m 14,5 C 16,9 C 8,0 km/h (2 Bft) 100,00 %
05.07.2016 07:58 17,1 C 87 % 1015,5 hPa 0,0 l/m 5,3 km/h (1 Bft) N-NO 32 2 min 0,000 mm 1,1 UV-I 340 W/m 14,9 C 17,1 C 8,0 km/h (2 Bft) 100,00 %
05.07.2016 08:00 17,2 C 86 % 1015,5 hPa 0,0 l/m 6,4 km/h (2 Bft) N-NO 25 2 min 0,153 mm 1,1 UV-I 345 W/m 14,8 C 17,2 C 8,0 km/h (2 Bft) 95,74 %
05.07.2016 08:02 17,3 C 85 % 1015,5 hPa 0,0 l/m 6,1 km/h (2 Bft) NO 53 2 min 0,000 mm 1,1 UV-I 349 W/m 14,8 C 17,3 C 8,0 km/h (2 Bft) 100,00 %
05.07.2016 08:04 17,3 C 84 % 1015,5 hPa 0,0 l/m 6,0 km/h (2 Bft) NO 36 2 min 0,000 mm 1,2 UV-I 355 W/m 14,6 C 17,3 C 8,0 km/h (2 Bft) 97,87 %
05.07.2016 08:06 17,3 C 85 % 1015,4 hPa 0,0 l/m 6,0 km/h (2 Bft) NO 51 2 min 0,000 mm 1,2 UV-I 360 W/m 14,8 C 17,3 C 9,7 km/h (2 Bft) 100,00 %
05.07.2016 08:08 17,3 C 84 % 1015,5 hPa 0,0 l/m 3,2 km/h (1 Bft) O-NO 59 2 min 0,000 mm 1,2 UV-I 366 W/m 14,6 C 17,3 C 4,8 km/h (1 Bft) 97,87 %
05.07.2016 08:10 17,3 C 83 % 1015,5 hPa 0,0 l/m 5,3 km/h (1 Bft) O-NO 60 2 min 0,000 mm 1,3 UV-I 372 W/m 14,4 C 17,3 C 8,0 km/h (2 Bft) 100,00 %
05.07.2016 08:12 17,3 C 83 % 1015,5 hPa 0,0 l/m 4,7 km/h (1 Bft) O-NO 66 2 min 0,000 mm 1,3 UV-I 377 W/m 14,4 C 17,3 C 6,4 km/h (2 Bft) 97,87 %
05.07.2016 08:14 17,4 C 84 % 1015,5 hPa 0,0 l/m 3,9 km/h (1 Bft) NO 53 2 min 0,000 mm 1,3 UV-I 382 W/m 14,7 C 17,4 C 4,8 km/h (1 Bft) 100,00 %
05.07.2016 08:16 17,5 C 83 % 1015,5 hPa 0,0 l/m 2,1 km/h (1 Bft) NO 53 2 min 0,000 mm 1,3 UV-I 388 W/m 14,6 C 17,5 C 4,8 km/h (1 Bft) 96,00 %
05.07.2016 08:18 17,6 C 83 % 1015,5 hPa 0,0 l/m 3,6 km/h (1 Bft) NO 47 2 min 0,000 mm 1,4 UV-I 394 W/m 14,7 C 17,6 C 6,4 km/h (2 Bft) 100,00 %
05.07.2016 08:20 17,8 C 82 % 1015,5 hPa 0,0 l/m 3,7 km/h (1 Bft) NO 47 2 min 0,000 mm 1,4 UV-I 399 W/m 14,7 C 17,8 C 4,8 km/h (1 Bft) 97,87 %
05.07.2016 08:22 17,9 C 83 % 1015,5 hPa 0,0 l/m 3,2 km/h (1 Bft) NO 47 2 min 0,000 mm 1,5 UV-I 405 W/m 15,0 C 17,9 C 4,8 km/h (1 Bft) 100,00 %
05.07.2016 08:24 18,1 C 84 % 1015,5 hPa 0,0 l/m 4,5 km/h (1 Bft) N-NO 26 2 min 0,000 mm 1,5 UV-I 410 W/m 15,4 C 18,1 C 8,0 km/h (2 Bft) 100,00 %
05.07.2016 08:26 18,1 C 83 % 1015,4 hPa 0,0 l/m 3,5 km/h (1 Bft) N-NO 30 2 min 0,000 mm 1,5 UV-I 416 W/m 15,2 C 18,1 C 8,0 km/h (2 Bft) 97,87 %
05.07.2016 08:28 18,1 C 81 % 1015,4 hPa 0,0 l/m 4,8 km/h (1 Bft) NO 50 2 min 0,000 mm 1,6 UV-I 420 W/m 14,8 C 18,1 C 8,0 km/h (2 Bft) 98,00 %
05.07.2016 08:30 18,2 C 82 % 1015,4 hPa 0,0 l/m 2,9 km/h (1 Bft) N-NO 19 2 min 0,000 mm 1,6 UV-I 427 W/m 15,1 C 18,2 C 8,0 km/h (2 Bft) 97,87 %
05.07.2016 08:32 18,3 C 82 % 1015,4 hPa 0,0 l/m 3,6 km/h (1 Bft) N-NO 15 2 min 0,000 mm 1,7 UV-I 433 W/m 15,2 C 18,3 C 6,4 km/h (2 Bft) 97,87 %
05.07.2016 08:34 18,4 C 81 % 1015,4 hPa 0,0 l/m 1,6 km/h (1 Bft) N 10 2 min 0,000 mm 1,7 UV-I 438 W/m 15,1 C 18,4 C 4,8 km/h (1 Bft) 96,00 %
05.07.2016 08:36 18,5 C 83 % 1015,4 hPa 0,0 l/m 1,9 km/h (1 Bft) N-NO 16 2 min 0,000 mm 1,7 UV-I 444 W/m 15,6 C 18,5 C 4,8 km/h (1 Bft) 97,87 %
05.07.2016 08:38 18,6 C 81 % 1015,4 hPa 0,0 l/m 5,5 km/h (1 Bft) NO 36 2 min 0,000 mm 1,8 UV-I 449 W/m 15,3 C 18,6 C 8,0 km/h (2 Bft) 97,87 %
05.07.2016 08:40 18,6 C 79 % 1015,4 hPa 0,0 l/m 3,8 km/h (1 Bft) NO 46 2 min 0,000 mm 1,8 UV-I 457 W/m 14,9 C 18,6 C 6,4 km/h (2 Bft) 95,74 %
05.07.2016 08:42 18,6 C 80 % 1015,4 hPa 0,0 l/m 3,2 km/h (1 Bft) NO 45 2 min 0,000 mm 1,9 UV-I 464 W/m 15,1 C 18,6 C 6,4 km/h (2 Bft) 100,00 %
05.07.2016 08:44 18,6 C 79 % 1015,3 hPa 0,0 l/m 2,9 km/h (1 Bft) NO 44 2 min 0,000 mm 1,9 UV-I 472 W/m 14,9 C 18,6 C 6,4 km/h (2 Bft) 93,62 %
05.07.2016 08:46 18,7 C 80 % 1015,3 hPa 0,0 l/m 3,8 km/h (1 Bft) N-NO 32 2 min 0,000 mm 2,0 UV-I 481 W/m 15,2 C 18,7 C 6,4 km/h (2 Bft) 93,62 %
05.07.2016 08:48 18,8 C 77 % 1015,3 hPa 0,0 l/m 1,0 km/h (0 Bft) N-NO 32 2 min 0,000 mm 2,0 UV-I 493 W/m 14,7 C 18,8 C 3,2 km/h (1 Bft) 98,00 %
05.07.2016 08:50 18,8 C 79 % 1015,3 hPa 0,0 l/m 2,1 km/h (1 Bft) N-NO 32 2 min 0,000 mm 2,1 UV-I 511 W/m 15,1 C 18,8 C 6,4 km/h (2 Bft) 97,87 %
05.07.2016 08:52 19,0 C 79 % 1015,4 hPa 0,0 l/m 1,2 km/h (1 Bft) N-NO 32 2 min 0,000 mm 2,2 UV-I 539 W/m 15,3 C 19,0 C 3,2 km/h (1 Bft) 97,87 %
05.07.2016 08:54 19,2 C 78 % 1015,3 hPa 0,0 l/m 1,6 km/h (1 Bft) N-NO 32 2 min 0,000 mm 2,3 UV-I 570 W/m 15,3 C 19,2 C 3,2 km/h (1 Bft) 97,87 %
05.07.2016 08:56 19,3 C 78 % 1015,3 hPa 0,0 l/m 1,2 km/h (1 Bft) N-NO 32 2 min 0,000 mm 2,3 UV-I 570 W/m 15,4 C 19,3 C 3,2 km/h (1 Bft) 95,12 %
05.07.2016 08:58 19,2 C 77 % 1015,3 hPa 0,0 l/m 0,6 km/h (0 Bft) N-NO 32 2 min 0,000 mm 2,0 UV-I 510 W/m 15,1 C 19,2 C 3,2 km/h (1 Bft) 97,87 %
05.07.2016 09:00 19,3 C 77 % 1015,3 hPa 0,0 l/m 0,9 km/h (0 Bft) N-NO 30 2 min 0,254 mm 2,2 UV-I 578 W/m 15,2 C 19,3 C 3,2 km/h (1 Bft) 97,87 %
05.07.2016 09:02 19,4 C 75 % 1015,3 hPa 0,0 l/m 3,8 km/h (1 Bft) NO 46 2 min 0,000 mm 2,4 UV-I 587 W/m 14,8 C 19,4 C 6,4 km/h (2 Bft) 95,83 %
05.07.2016 09:04 19,5 C 77 % 1015,3 hPa 0,0 l/m 2,8 km/h (1 Bft) O-NO 62 2 min 0,000 mm 2,4 UV-I 556 W/m 15,4 C 19,5 C 4,8 km/h (1 Bft) 95,74 %
05.07.2016 09:06 19,4 C 75 % 1015,2 hPa 0,0 l/m 1,9 km/h (1 Bft) O-NO 61 2 min 0,000 mm 2,3 UV-I 520 W/m 14,8 C 19,4 C 4,8 km/h (1 Bft) 97,87 %
05.07.2016 09:08 19,5 C 76 % 1015,2 hPa 0,0 l/m 2,9 km/h (1 Bft) O-NO 61 2 min 0,000 mm 2,5 UV-I 500 W/m 15,2 C 19,5 C 4,8 km/h (1 Bft) 100,00 %
05.07.2016 09:10 19,4 C 74 % 1015,2 hPa 0,0 l/m 1,0 km/h (0 Bft) NO 51 2 min 0,000 mm 2,5 UV-I 502 W/m 14,6 C 19,4 C 4,8 km/h (1 Bft) 100,00 %
05.07.2016 09:12 19,5 C 77 % 1015,3 hPa 0,0 l/m 2,4 km/h (1 Bft) NO 42 2 min 0,000 mm 2,6 UV-I 504 W/m 15,4 C 19,5 C 6,4 km/h (2 Bft) 98,00 %
05.07.2016 09:14 19,7 C 78 % 1015,2 hPa 0,0 l/m 0,8 km/h (0 Bft) NO 42 2 min 0,000 mm 2,5 UV-I 446 W/m 15,8 C 19,7 C 3,2 km/h (1 Bft) 97,87 %
05.07.2016 09:16 19,8 C 76 % 1015,3 hPa 0,0 l/m 2,8 km/h (1 Bft) NO 42 2 min 0,000 mm 2,6 UV-I 466 W/m 15,4 C 19,8 C 6,4 km/h (2 Bft) 100,00 %
05.07.2016 09:18 19,8 C 75 % 1015,3 hPa 0,0 l/m 2,7 km/h (1 Bft) NO 42 2 min 0,000 mm 2,7 UV-I 470 W/m 15,2 C 19,8 C 4,8 km/h (1 Bft) 100,00 %
05.07.2016 09:20 19,8 C 73 % 1015,3 hPa 0,0 l/m 0,7 km/h (0 Bft) NO 42 2 min 0,000 mm 2,8 UV-I 485 W/m 14,8 C 19,8 C 3,2 km/h (1 Bft) 100,00 %
05.07.2016 09:22 19,8 C 78 % 1015,3 hPa 0,0 l/m 1,2 km/h (1 Bft) NO 41 2 min 0,000 mm 2,7 UV-I 485 W/m 15,8 C 19,8 C 3,2 km/h (1 Bft) 100,00 %
05.07.2016 09:24 20,0 C 78 % 1015,4 hPa 0,0 l/m 2,1 km/h (1 Bft) NO 41 2 min 0,000 mm 2,6 UV-I 482 W/m 16,0 C 20,0 C 4,8 km/h (1 Bft) 100,00 %
05.07.2016 09:26 20,2 C 76 % 1015,3 hPa 0,0 l/m 2,1 km/h (1 Bft) NO 36 2 min 0,000 mm 2,9 UV-I 463 W/m 15,8 C 20,2 C 4,8 km/h (1 Bft) 100,00 %
05.07.2016 09:28 20,1 C 75 % 1015,3 hPa 0,0 l/m 1,0 km/h (0 Bft) NO 36 2 min 0,000 mm 2,9 UV-I 446 W/m 15,5 C 20,1 C 3,2 km/h (1 Bft) 100,00 %
05.07.2016 09:30 20,1 C 77 % 1015,3 hPa 0,0 l/m 2,2 km/h (1 Bft) N 9 2 min 0,000 mm 2,9 UV-I 488 W/m 15,9 C 20,1 C 4,8 km/h (1 Bft) 100,00 %
05.07.2016 09:32 20,2 C 75 % 1015,3 hPa 0,0 l/m 0,8 km/h (0 Bft) N 9 2 min 0,000 mm 3,0 UV-I 506 W/m 15,6 C 20,2 C 3,2 km/h (1 Bft) 100,00 %
05.07.2016 09:34 20,4 C 78 % 1015,3 hPa 0,0 l/m 2,2 km/h (1 Bft) N-NO 20 2 min 0,000 mm 3,2 UV-I 516 W/m 16,4 C 20,4 C 4,8 km/h (1 Bft) 95,74 %
05.07.2016 09:36 20,3 C 74 % 1015,3 hPa 0,0 l/m 1,4 km/h (1 Bft) N-NO 13 2 min 0,000 mm 3,2 UV-I 526 W/m 15,5 C 20,3 C 4,8 km/h (1 Bft) 100,00 %
05.07.2016 09:38 20,4 C 77 % 1015,2 hPa 0,0 l/m 1,5 km/h (1 Bft) N-NW 331 2 min 0,000 mm 3,3 UV-I 548 W/m 16,2 C 20,4 C 4,8 km/h (1 Bft) 100,00 %
05.07.2016 09:40 20,4 C 76 % 1015,2 hPa 0,0 l/m 1,5 km/h (1 Bft) N-NW 330 2 min 0,000 mm 3,4 UV-I 569 W/m 16,0 C 20,4 C 4,8 km/h (1 Bft) 97,87 %
05.07.2016 09:42 20,6 C 74 % 1015,2 hPa 0,0 l/m 3,2 km/h (1 Bft) N-NW 346 2 min 0,000 mm 3,5 UV-I 596 W/m 15,8 C 20,6 C 4,8 km/h (1 Bft) 93,62 %
05.07.2016 09:44 20,7 C 77 % 1015,2 hPa 0,0 l/m 2,3 km/h (1 Bft) NO 44 2 min 0,000 mm 3,6 UV-I 625 W/m 16,5 C 20,7 C 9,7 km/h (2 Bft) 100,00 %
05.07.2016 09:46 20,9 C 74 % 1015,1 hPa 0,0 l/m 7,6 km/h (2 Bft) N-NO 25 2 min 0,000 mm 3,6 UV-I 651 W/m 16,1 C 20,4 C 11,3 km/h (2 Bft) 97,87 %
05.07.2016 09:48 21,0 C 74 % 1015,1 hPa 0,0 l/m 5,5 km/h (1 Bft) N-NO 31 2 min 0,000 mm 3,8 UV-I 691 W/m 16,2 C 21,0 C 11,3 km/h (2 Bft) 100,00 %
05.07.2016 09:50 20,9 C 72 % 1015,1 hPa 0,0 l/m 2,5 km/h (1 Bft) N-NO 31 2 min 0,000 mm 3,4 UV-I 582 W/m 15,7 C 20,9 C 4,8 km/h (1 Bft) 100,00 %
05.07.2016 09:52 21,1 C 77 % 1015,1 hPa 0,0 l/m 4,1 km/h (1 Bft) O-NO 63 2 min 0,000 mm 3,9 UV-I 679 W/m 16,9 C 21,1 C 6,4 km/h (2 Bft) 100,00 %
05.07.2016 09:54 21,3 C 74 % 1015,1 hPa 0,0 l/m 1,9 km/h (1 Bft) NO 39 2 min 0,000 mm 3,3 UV-I 761 W/m 16,5 C 21,3 C 11,3 km/h (2 Bft) 100,00 %
05.07.2016 09:56 21,2 C 73 % 1015,1 hPa 0,0 l/m 6,4 km/h (2 Bft) N-NO 29 0 min 0,000 mm 2,9 UV-I 299 W/m 16,2 C 21,2 C 9,7 km/h (2 Bft) 100,00 %
05.07.2016 09:58 21,0 C 76 % 1015,1 hPa 0,0 l/m 4,4 km/h (1 Bft) N 9 0 min 0,000 mm 3,1 UV-I 299 W/m 16,6 C 21,0 C 8,0 km/h (2 Bft) 97,87 %
05.07.2016 10:00 20,9 C 74 % 1015,1 hPa 0,0 l/m 0,9 km/h (0 Bft) N 5 0 min 0,305 mm 3,0 UV-I 299 W/m 16,1 C 20,9 C 3,2 km/h (1 Bft) 100,00 %
05.07.2016 10:02 20,8 C 73 % 1015,1 hPa 0,0 l/m 0,5 km/h (0 Bft) N 5 0 min 0,000 mm 2,7 UV-I 299 W/m 15,8 C 20,8 C 1,6 km/h (1 Bft) 100,00 %
05.07.2016 10:04 20,8 C 75 % 1015,1 hPa 0,0 l/m 0,8 km/h (0 Bft) N-NW 344 0 min 0,000 mm 3,8 UV-I 299 W/m 16,2 C 20,8 C 3,2 km/h (1 Bft) 97,87 %
05.07.2016 10:06 20,8 C 73 % 1015,1 hPa 0,0 l/m 2,7 km/h (1 Bft) NW 315 2 min 0,000 mm 4,2 UV-I 681 W/m 15,8 C 20,8 C 4,8 km/h (1 Bft) 100,00 %
05.07.2016 10:08 21,0 C 74 % 1015,1 hPa 0,0 l/m 2,7 km/h (1 Bft) N 355 2 min 0,000 mm 4,3 UV-I 729 W/m 16,2 C 21,0 C 4,8 km/h (1 Bft) 100,00 %
05.07.2016 10:10 21,2 C 74 % 1015,1 hPa 0,0 l/m 5,5 km/h (1 Bft) N-NO 29 2 min 0,000 mm 4,3 UV-I 757 W/m 16,4 C 21,2 C 12,9 km/h (3 Bft) 97,87 %
05.07.2016 10:12 21,4 C 75 % 1015,1 hPa 0,0 l/m 4,5 km/h (1 Bft) N-NO 20 2 min 0,000 mm 4,3 UV-I 765 W/m 16,8 C 21,4 C 8,0 km/h (2 Bft) 100,00 %
05.07.2016 10:14 21,6 C 72 % 1015,1 hPa 0,0 l/m 4,9 km/h (1 Bft) N 349 2 min 0,000 mm 3,9 UV-I 667 W/m 16,3 C 21,6 C 9,7 km/h (2 Bft) 97,37 %
05.07.2016 10:16 21,4 C 72 % 1015,1 hPa 0,0 l/m 2,9 km/h (1 Bft) N 351 2 min 0,000 mm 3,9 UV-I 562 W/m 16,1 C 21,4 C 6,4 km/h (2 Bft) 95,74 %
05.07.2016 10:18 21,3 C 72 % 1015,1 hPa 0,0 l/m 1,8 km/h (1 Bft) N-NO 22 2 min 0,000 mm 4,1 UV-I 581 W/m 16,0 C 21,3 C 4,8 km/h (1 Bft) 97,87 %
05.07.2016 10:20 21,4 C 73 % 1015,1 hPa 0,0 l/m 3,8 km/h (1 Bft) NW 319 2 min 0,000 mm 4,5 UV-I 719 W/m 16,4 C 21,4 C 8,0 km/h (2 Bft) 97,87 %
05.07.2016 10:22 21,5 C 73 % 1015,1 hPa 0,0 l/m 3,7 km/h (1 Bft) N-NW 348 2 min 0,000 mm 4,5 UV-I 738 W/m 16,4 C 21,5 C 6,4 km/h (2 Bft) 100,00 %
05.07.2016 10:24 21,6 C 74 % 1015,0 hPa 0,0 l/m 3,2 km/h (1 Bft) NO 42 2 min 0,000 mm 4,4 UV-I 689 W/m 16,8 C 21,6 C 6,4 km/h (2 Bft) 100,00 %
05.07.2016 10:26 21,7 C 73 % 1015,0 hPa 0,0 l/m 6,2 km/h (2 Bft) N-NW 338 2 min 0,000 mm 4,2 UV-I 620 W/m 16,6 C 21,7 C 9,7 km/h (2 Bft) 94,00 %
05.07.2016 10:28 21,6 C 73 % 1015,1 hPa 0,0 l/m 3,2 km/h (1 Bft) N-NW 332 2 min 0,000 mm 3,9 UV-I 613 W/m 16,5 C 21,6 C 6,4 km/h (2 Bft) 93,62 %
05.07.2016 10:30 21,7 C 71 % 1015,0 hPa 0,0 l/m 3,4 km/h (1 Bft) N 355 2 min 0,000 mm 3,7 UV-I 450 W/m 16,2 C 21,7 C 6,4 km/h (2 Bft) 93,62 %
05.07.2016 10:32 21,4 C 71 % 1015,0 hPa 0,0 l/m 2,7 km/h (1 Bft) NW 325 2 min 0,000 mm 4,2 UV-I 428 W/m 15,9 C 21,4 C 6,4 km/h (2 Bft) 97,87 %
05.07.2016 10:34 21,4 C 73 % 1015,0 hPa 0,0 l/m 1,5 km/h (1 Bft) N-NO 18 2 min 0,000 mm 4,6 UV-I 675 W/m 16,4 C 21,4 C 3,2 km/h (1 Bft) 97,87 %
05.07.2016 10:36 21,6 C 73 % 1015,0 hPa 0,0 l/m 3,0 km/h (1 Bft) N 5 2 min 0,000 mm 4,4 UV-I 771 W/m 16,5 C 21,6 C 8,0 km/h (2 Bft) 93,62 %
05.07.2016 10:38 21,7 C 71 % 1014,9 hPa 0,0 l/m 2,3 km/h (1 Bft) NW 323 2 min 0,000 mm 4,9 UV-I 760 W/m 16,2 C 21,7 C 4,8 km/h (1 Bft) 89,36 %
05.07.2016 10:40 21,7 C 72 % 1014,9 hPa 0,0 l/m 1,8 km/h (1 Bft) N-NO 19 2 min 0,000 mm 3,9 UV-I 751 W/m 16,4 C 21,7 C 4,8 km/h (1 Bft) 95,74 %
05.07.2016 10:42 21,7 C 73 % 1014,9 hPa 0,0 l/m 3,3 km/h (1 Bft) N-NO 15 2 min 0,000 mm 4,9 UV-I 743 W/m 16,6 C 21,7 C 6,4 km/h (2 Bft) 95,83 %
05.07.2016 10:44 22,1 C 73 % 1014,9 hPa 0,0 l/m 7,0 km/h (2 Bft) NO 44 2 min 0,000 mm 5,0 UV-I 732 W/m 17,0 C 21,9 C 12,9 km/h (3 Bft) 97,87 %
05.07.2016 10:46 22,2 C 72 % 1014,8 hPa 0,0 l/m 3,0 km/h (1 Bft) O-NO 62 2 min 0,000 mm 5,0 UV-I 743 W/m 16,9 C 22,2 C 6,4 km/h (2 Bft) 97,87 %
05.07.2016 10:48 22,3 C 71 % 1014,8 hPa 0,0 l/m 2,5 km/h (1 Bft) NO 44 2 min 0,000 mm 5,1 UV-I 746 W/m 16,8 C 22,3 C 6,4 km/h (2 Bft) 97,37 %
05.07.2016 10:50 22,4 C 68 % 1014,8 hPa 0,0 l/m 4,2 km/h (1 Bft) N-NO 28 2 min 0,000 mm 5,1 UV-I 752 W/m 16,2 C 22,4 C 8,0 km/h (2 Bft) 97,87 %
05.07.2016 10:52 22,6 C 70 % 1014,8 hPa 0,0 l/m 1,7 km/h (1 Bft) N-NO 16 2 min 0,000 mm 5,2 UV-I 755 W/m 16,8 C 22,6 C 6,4 km/h (2 Bft) 97,87 %
05.07.2016 10:54 22,8 C 71 % 1014,8 hPa 0,0 l/m 2,2 km/h (1 Bft) N 9 2 min 0,000 mm 5,2 UV-I 759 W/m 17,3 C 22,8 C 4,8 km/h (1 Bft) 98,00 %
05.07.2016 10:56 22,7 C 69 % 1014,8 hPa 0,0 l/m 1,5 km/h (1 Bft) N-NO 19 2 min 0,000 mm 5,3 UV-I 762 W/m 16,7 C 22,7 C 3,2 km/h (1 Bft) 91,49 %
05.07.2016 10:58 22,7 C 73 % 1014,8 hPa 0,0 l/m 4,3 km/h (1 Bft) NO 44 2 min 0,000 mm 5,4 UV-I 766 W/m 17,6 C 22,7 C 11,3 km/h (2 Bft) 100,00 %
05.07.2016 11:00 22,9 C 65 % 1014,8 hPa 0,0 l/m 6,5 km/h (2 Bft) N-NO 25 2 min 0,431 mm 5,4 UV-I 771 W/m 16,0 C 22,9 C 9,7 km/h (2 Bft) 100,00 %
05.07.2016 11:02 23,0 C 63 % 1014,8 hPa 0,0 l/m 6,2 km/h (2 Bft) O-NO 67 2 min 0,000 mm 5,5 UV-I 775 W/m 15,6 C 23,0 C 9,7 km/h (2 Bft) 93,62 %
05.07.2016 11:04 22,9 C 63 % 1014,8 hPa 0,0 l/m 5,0 km/h (1 Bft) O 81 2 min 0,000 mm 5,5 UV-I 779 W/m 15,5 C 22,9 C 8,0 km/h (2 Bft) 100,00 %
05.07.2016 11:06 22,8 C 62 % 1014,8 hPa 0,0 l/m 2,2 km/h (1 Bft) O-NO 66 2 min 0,000 mm 4,4 UV-I 780 W/m 15,1 C 22,8 C 4,8 km/h (1 Bft) 97,87 %
05.07.2016 11:08 22,8 C 64 % 1014,7 hPa 0,0 l/m 3,8 km/h (1 Bft) O-NO 70 2 min 0,000 mm 5,6 UV-I 780 W/m 15,6 C 22,8 C 4,8 km/h (1 Bft) 93,62 %
05.07.2016 11:10 22,6 C 63 % 1014,7 hPa 0,0 l/m 1,1 km/h (1 Bft) O-NO 71 2 min 0,000 mm 5,6 UV-I 787 W/m 15,2 C 22,6 C 1,6 km/h (1 Bft) 97,87 %
05.07.2016 11:12 22,7 C 69 % 1014,7 hPa 0,0 l/m 2,1 km/h (1 Bft) NO 36 2 min 0,000 mm 5,7 UV-I 794 W/m 16,7 C 22,7 C 4,8 km/h (1 Bft) 100,00 %
05.07.2016 11:14 23,0 C 68 % 1014,7 hPa 0,0 l/m 5,9 km/h (2 Bft) O-NO 59 2 min 0,000 mm 5,8 UV-I 760 W/m 16,8 C 23,0 C 8,0 km/h (2 Bft) 97,87 %
05.07.2016 11:16 23,0 C 65 % 1014,8 hPa 0,0 l/m 4,0 km/h (1 Bft) NO 50 2 min 0,000 mm 5,8 UV-I 791 W/m 16,1 C 23,0 C 6,4 km/h (2 Bft) 100,00 %
05.07.2016 11:18 23,1 C 63 % 1014,7 hPa 0,0 l/m 2,0 km/h (1 Bft) NO 49 2 min 0,000 mm 5,8 UV-I 802 W/m 15,7 C 23,1 C 4,8 km/h (1 Bft) 100,00 %
05.07.2016 11:20 23,4 C 67 % 1014,8 hPa 0,0 l/m 4,5 km/h (1 Bft) NO 49 2 min 0,000 mm 5,9 UV-I 804 W/m 16,9 C 23,4 C 6,4 km/h (2 Bft) 100,00 %
05.07.2016 11:22 23,6 C 68 % 1014,8 hPa 0,0 l/m 5,8 km/h (2 Bft) N-NO 12 2 min 0,000 mm 5,9 UV-I 808 W/m 17,3 C 23,6 C 8,0 km/h (2 Bft) 100,00 %
05.07.2016 11:24 23,5 C 65 % 1014,7 hPa 0,0 l/m 2,4 km/h (1 Bft) N-NW 336 2 min 0,000 mm 5,3 UV-I 785 W/m 16,5 C 23,5 C 8,0 km/h (2 Bft) 100,00 %
05.07.2016 11:26 23,6 C 64 % 1014,8 hPa 0,0 l/m 1,7 km/h (1 Bft) W-NW 300 2 min 0,000 mm 5,7 UV-I 732 W/m 16,4 C 23,6 C 4,8 km/h (1 Bft) 97,96 %
05.07.2016 11:28 23,3 C 64 % 1014,8 hPa 0,0 l/m 2,2 km/h (1 Bft) NW 319 2 min 0,000 mm 5,8 UV-I 760 W/m 16,1 C 23,3 C 4,8 km/h (1 Bft) 100,00 %
05.07.2016 11:30 23,2 C 65 % 1014,8 hPa 0,0 l/m 0,7 km/h (0 Bft) NW 319 2 min 0,000 mm 6,0 UV-I 807 W/m 16,2 C 23,2 C 3,2 km/h (1 Bft) 100,00 %
05.07.2016 11:32 23,4 C 70 % 1014,7 hPa 0,0 l/m 2,5 km/h (1 Bft) N-NO 19 2 min 0,000 mm 6,2 UV-I 822 W/m 17,6 C 23,4 C 6,4 km/h (2 Bft) 100,00 %
05.07.2016 11:34 23,7 C 67 % 1014,7 hPa 0,0 l/m 4,1 km/h (1 Bft) NW 314 2 min 0,000 mm 6,2 UV-I 823 W/m 17,2 C 23,7 C 8,0 km/h (2 Bft) 97,87 %
05.07.2016 11:36 23,6 C 60 % 1014,7 hPa 0,0 l/m 2,5 km/h (1 Bft) NW 310 2 min 0,000 mm 6,2 UV-I 825 W/m 15,4 C 23,6 C 4,8 km/h (1 Bft) 100,00 %
05.07.2016 11:38 23,4 C 65 % 1014,7 hPa 0,0 l/m 1,1 km/h (1 Bft) N-NW 331 2 min 0,000 mm 6,2 UV-I 828 W/m 16,4 C 23,4 C 3,2 km/h (1 Bft) 98,00 %
05.07.2016 11:40 23,7 C 65 % 1014,7 hPa 0,0 l/m 3,8 km/h (1 Bft) NO 36 2 min 0,000 mm 6,3 UV-I 832 W/m 16,7 C 23,7 C 8,0 km/h (2 Bft) 100,00 %
05.07.2016 11:42 23,9 C 66 % 1014,7 hPa 0,0 l/m 3,3 km/h (1 Bft) NW 315 2 min 0,000 mm 6,3 UV-I 836 W/m 17,1 C 23,9 C 8,0 km/h (2 Bft) 100,00 %
05.07.2016 11:44 24,0 C 66 % 1014,7 hPa 0,0 l/m 1,3 km/h (1 Bft) N 355 2 min 0,000 mm 6,4 UV-I 840 W/m 17,2 C 24,0 C 3,2 km/h (1 Bft) 100,00 %
05.07.2016 11:46 23,9 C 62 % 1014,7 hPa 0,0 l/m 2,5 km/h (1 Bft) N-NW 335 2 min 0,000 mm 6,4 UV-I 840 W/m 16,2 C 23,9 C 4,8 km/h (1 Bft) 100,00 %
05.07.2016 11:48 24,0 C 65 % 1014,7 hPa 0,0 l/m 2,4 km/h (1 Bft) NW 323 2 min 0,000 mm 6,4 UV-I 839 W/m 17,0 C 24,0 C 4,8 km/h (1 Bft) 100,00 %
05.07.2016 11:50 23,9 C 57 % 1014,7 hPa 0,0 l/m 3,6 km/h (1 Bft) W-NW 302 2 min 0,000 mm 6,5 UV-I 839 W/m 14,9 C 23,9 C 6,4 km/h (2 Bft) 100,00 %
05.07.2016 11:52 24,0 C 62 % 1014,7 hPa 0,0 l/m 3,4 km/h (1 Bft) N-NW 343 2 min 0,000 mm 6,5 UV-I 838 W/m 16,3 C 24,0 C 8,0 km/h (2 Bft) 100,00 %
05.07.2016 11:54 24,2 C 62 % 1014,6 hPa 0,0 l/m 1,5 km/h (1 Bft) N 349 2 min 0,000 mm 6,5 UV-I 839 W/m 16,4 C 24,2 C 3,2 km/h (1 Bft) 100,00 %
05.07.2016 11:56 24,3 C 60 % 1014,6 hPa 0,0 l/m 2,3 km/h (1 Bft) N-NW 344 2 min 0,000 mm 6,5 UV-I 842 W/m 16,0 C 24,3 C 4,8 km/h (1 Bft) 100,00 %
05.07.2016 11:58 24,2 C 60 % 1014,6 hPa 0,0 l/m 1,1 km/h (1 Bft) NW 317 2 min 0,000 mm 6,5 UV-I 844 W/m 15,9 C 24,2 C 3,2 km/h (1 Bft) 100,00 %
05.07.2016 12:00 24,1 C 60 % 1014,6 hPa 0,0 l/m 1,1 km/h (1 Bft) N 351 2 min 0,000 mm 6,6 UV-I 851 W/m 15,8 C 24,1 C 3,2 km/h (1 Bft) 100,00 %
05.07.2016 12:02 23,9 C 58 % 1014,6 hPa 0,0 l/m 2,2 km/h (1 Bft) N 350 2 min 0,508 mm 6,7 UV-I 858 W/m 15,1 C 23,9 C 4,8 km/h (1 Bft) 100,00 %
05.07.2016 12:04 24,0 C 56 % 1014,6 hPa 0,0 l/m 3,6 km/h (1 Bft) NW 307 2 min 0,000 mm 6,7 UV-I 867 W/m 14,7 C 24,0 C 6,4 km/h (2 Bft) 100,00 %
05.07.2016 12:06 24,0 C 55 % 1014,6 hPa 0,0 l/m 2,3 km/h (1 Bft) NW 311 2 min 0,000 mm 6,8 UV-I 874 W/m 14,4 C 24,0 C 4,8 km/h (1 Bft) 95,74 %
05.07.2016 12:08 24,1 C 55 % 1014,5 hPa 0,0 l/m 2,2 km/h (1 Bft) NW 315 2 min 0,000 mm 6,8 UV-I 884 W/m 14,5 C 24,1 C 4,8 km/h (1 Bft) 100,00 %
05.07.2016 12:10 24,1 C 55 % 1014,6 hPa 0,0 l/m 2,2 km/h (1 Bft) NW 311 2 min 0,000 mm 6,9 UV-I 890 W/m 14,5 C 24,1 C 4,8 km/h (1 Bft) 100,00 %
05.07.2016 12:12 24,1 C 56 % 1014,5 hPa 0,0 l/m 2,1 km/h (1 Bft) S-SW 198 2 min 0,000 mm 6,7 UV-I 900 W/m 14,8 C 24,1 C 4,8 km/h (1 Bft) 97,87 %
05.07.2016 12:14 24,2 C 53 % 1014,5 hPa 0,0 l/m 3,9 km/h (1 Bft) W-NW 299 2 min 0,000 mm 6,7 UV-I 897 W/m 14,0 C 24,2 C 8,0 km/h (2 Bft) 97,37 %
05.07.2016 12:16 24,2 C 52 % 1014,6 hPa 0,0 l/m 2,5 km/h (1 Bft) W-NW 302 2 min 0,000 mm 7,0 UV-I 812 W/m 13,7 C 24,2 C 6,4 km/h (2 Bft) 100,00 %
05.07.2016 12:18 24,2 C 56 % 1014,5 hPa 0,0 l/m 2,5 km/h (1 Bft) NW 306 2 min 0,000 mm 7,1 UV-I 888 W/m 14,9 C 24,2 C 4,8 km/h (1 Bft) 95,74 %
05.07.2016 12:20 24,3 C 51 % 1014,6 hPa 0,0 l/m 2,3 km/h (1 Bft) NW 305 2 min 0,000 mm 6,6 UV-I 867 W/m 13,5 C 24,3 C 4,8 km/h (1 Bft) 98,00 %
05.07.2016 12:22 24,4 C 57 % 1014,6 hPa 0,0 l/m 2,3 km/h (1 Bft) W-NW 302 2 min 0,000 mm 7,4 UV-I 991 W/m 15,3 C 24,4 C 4,8 km/h (1 Bft) 98,00 %
05.07.2016 12:24 24,4 C 51 % 1014,6 hPa 0,0 l/m 1,4 km/h (1 Bft) W-NW 301 2 min 0,000 mm 7,7 UV-I 1043 W/m 13,6 C 24,4 C 3,2 km/h (1 Bft) 97,87 %
05.07.2016 12:26 24,5 C 51 % 1014,5 hPa 0,0 l/m 2,3 km/h (1 Bft) W-NW 300 2 min 0,000 mm 7,6 UV-I 1091 W/m 13,7 C 24,5 C 4,8 km/h (1 Bft) 91,49 %
05.07.2016 12:28 24,6 C 52 % 1014,5 hPa 0,0 l/m 1,7 km/h (1 Bft) NW 307 2 min 0,000 mm 7,7 UV-I 1098 W/m 14,1 C 24,6 C 4,8 km/h (1 Bft) 97,87 %
05.07.2016 12:30 24,6 C 50 % 1014,5 hPa 0,0 l/m 2,1 km/h (1 Bft) N-NW 340 2 min 0,000 mm 7,5 UV-I 1091 W/m 13,5 C 24,6 C 4,8 km/h (1 Bft) 97,87 %
05.07.2016 12:32 24,6 C 56 % 1014,5 hPa 0,0 l/m 2,8 km/h (1 Bft) NW 323 2 min 0,000 mm 6,9 UV-I 1055 W/m 15,2 C 24,6 C 6,4 km/h (2 Bft) 97,87 %
05.07.2016 12:34 24,8 C 57 % 1014,5 hPa 0,0 l/m 1,8 km/h (1 Bft) N-NW 342 2 min 0,000 mm 6,4 UV-I 1055 W/m 15,7 C 24,8 C 4,8 km/h (1 Bft) 97,87 %
05.07.2016 12:36 24,7 C 57 % 1014,5 hPa 0,0 l/m 2,5 km/h (1 Bft) N-NO 15 2 min 0,000 mm 4,6 UV-I 1055 W/m 15,6 C 24,7 C 6,4 km/h (2 Bft) 97,87 %
05.07.2016 12:38 24,4 C 60 % 1014,5 hPa 0,0 l/m 2,4 km/h (1 Bft) N 355 2 min 0,000 mm 5,0 UV-I 899 W/m 16,1 C 24,4 C 6,4 km/h (2 Bft) 97,44 %
05.07.2016 12:40 24,5 C 57 % 1014,5 hPa 0,0 l/m 1,5 km/h (1 Bft) N 355 2 min 0,000 mm 7,1 UV-I 833 W/m 15,4 C 24,5 C 4,8 km/h (1 Bft) 97,87 %
05.07.2016 12:42 24,7 C 55 % 1014,5 hPa 0,0 l/m 2,2 km/h (1 Bft) N-NW 329 2 min 0,000 mm 7,3 UV-I 970 W/m 15,0 C 24,7 C 9,7 km/h (2 Bft) 97,87 %
05.07.2016 12:44 24,8 C 61 % 1014,5 hPa 0,0 l/m 3,0 km/h (1 Bft) N-NO 17 2 min 0,000 mm 7,3 UV-I 936 W/m 16,8 C 24,8 C 6,4 km/h (2 Bft) 97,87 %
05.07.2016 12:46 24,9 C 60 % 1014,4 hPa 0,0 l/m 2,9 km/h (1 Bft) N 5 2 min 0,000 mm 7,3 UV-I 947 W/m 16,6 C 24,9 C 8,0 km/h (2 Bft) 95,74 %
05.07.2016 12:48 25,2 C 58 % 1014,4 hPa 0,0 l/m 4,6 km/h (1 Bft) N-NO 27 2 min 0,000 mm 7,5 UV-I 978 W/m 16,3 C 25,2 C 9,7 km/h (2 Bft) 95,74 %
05.07.2016 12:50 25,3 C 52 % 1014,4 hPa 0,0 l/m 4,0 km/h (1 Bft) NO 34 2 min 0,000 mm 7,5 UV-I 983 W/m 14,7 C 25,3 C 14,5 km/h (3 Bft) 95,74 %
05.07.2016 12:52 25,3 C 55 % 1014,3 hPa 0,0 l/m 8,4 km/h (2 Bft) O-NO 60 2 min 0,000 mm 7,3 UV-I 968 W/m 15,6 C 24,8 C 14,5 km/h (3 Bft) 97,87 %
05.07.2016 12:54 25,3 C 50 % 1014,3 hPa 0,0 l/m 6,0 km/h (2 Bft) SO 128 2 min 0,000 mm 6,8 UV-I 971 W/m 14,1 C 25,3 C 12,9 km/h (3 Bft) 100,00 %
05.07.2016 12:56 24,9 C 53 % 1014,2 hPa 0,0 l/m 1,9 km/h (1 Bft) O-SO 107 2 min 0,000 mm 7,3 UV-I 1007 W/m 14,6 C 24,9 C 6,4 km/h (2 Bft) 100,00 %
05.07.2016 12:58 24,9 C 52 % 1014,2 hPa 0,0 l/m 3,3 km/h (1 Bft) O 86 2 min 0,000 mm 6,9 UV-I 1011 W/m 14,4 C 24,9 C 9,7 km/h (2 Bft) 97,87 %
05.07.2016 13:00 25,3 C 59 % 1014,2 hPa 0,0 l/m 1,5 km/h (1 Bft) N-NW 331 2 min 0,585 mm 7,4 UV-I 998 W/m 16,7 C 25,3 C 4,8 km/h (1 Bft) 95,74 %
05.07.2016 13:02 25,6 C 55 % 1014,2 hPa 0,0 l/m 3,1 km/h (1 Bft) O-NO 63 2 min 0,000 mm 7,3 UV-I 956 W/m 15,9 C 25,6 C 6,4 km/h (2 Bft) 97,87 %
05.07.2016 13:04 25,6 C 50 % 1014,2 hPa 0,0 l/m 5,6 km/h (1 Bft) O-NO 57 2 min 0,000 mm 7,2 UV-I 1002 W/m 14,4 C 25,6 C 12,9 km/h (3 Bft) 97,87 %
05.07.2016 13:06 25,7 C 49 % 1014,2 hPa 0,0 l/m 3,6 km/h (1 Bft) NO 53 2 min 0,000 mm 7,9 UV-I 981 W/m 14,2 C 25,7 C 8,0 km/h (2 Bft) 100,00 %
05.07.2016 13:08 25,5 C 55 % 1014,2 hPa 0,0 l/m 0,8 km/h (0 Bft) NO 49 2 min 0,000 mm 7,0 UV-I 937 W/m 15,8 C 25,5 C 1,6 km/h (1 Bft) 97,87 %
05.07.2016 13:10 25,5 C 57 % 1014,1 hPa 0,0 l/m 3,0 km/h (1 Bft) N 355 2 min 0,000 mm 5,8 UV-I 742 W/m 16,3 C 25,5 C 6,4 km/h (2 Bft) 100,00 %
05.07.2016 13:12 25,4 C 52 % 1014,1 hPa 0,0 l/m 2,6 km/h (1 Bft) W-SW 257 2 min 0,000 mm 6,4 UV-I 726 W/m 14,8 C 25,4 C 6,4 km/h (2 Bft) 100,00 %
05.07.2016 13:14 25,4 C 50 % 1014,1 hPa 0,0 l/m 1,6 km/h (1 Bft) S-SW 199 2 min 0,000 mm 6,8 UV-I 753 W/m 14,2 C 25,4 C 4,8 km/h (1 Bft) 100,00 %
05.07.2016 13:16 25,6 C 53 % 1014,1 hPa 0,0 l/m 1,0 km/h (0 Bft) SW 219 2 min 0,000 mm 6,4 UV-I 775 W/m 15,3 C 25,6 C 3,2 km/h (1 Bft) 97,87 %
05.07.2016 13:18 25,7 C 52 % 1014,0 hPa 0,0 l/m 2,4 km/h (1 Bft) S-SW 196 2 min 0,000 mm 6,4 UV-I 752 W/m 15,1 C 25,7 C 6,4 km/h (2 Bft) 100,00 %
05.07.2016 13:20 25,7 C 50 % 1014,0 hPa 0,0 l/m 3,4 km/h (1 Bft) S-SO 159 2 min 0,000 mm 7,2 UV-I 895 W/m 14,5 C 25,7 C 8,0 km/h (2 Bft) 100,00 %
05.07.2016 13:22 25,8 C 50 % 1014,1 hPa 0,0 l/m 5,3 km/h (1 Bft) S-SW 196 2 min 0,000 mm 6,4 UV-I 1002 W/m 14,6 C 25,8 C 9,7 km/h (2 Bft) 100,00 %
05.07.2016 13:24 25,7 C 52 % 1014,0 hPa 0,0 l/m 4,5 km/h (1 Bft) SW 219 2 min 0,000 mm 5,5 UV-I 821 W/m 15,1 C 25,7 C 9,7 km/h (2 Bft) 97,87 %
05.07.2016 13:26 25,6 C 50 % 1014,1 hPa 0,0 l/m 8,2 km/h (2 Bft) W-SW 255 2 min 0,000 mm 5,6 UV-I 743 W/m 14,4 C 25,2 C 12,9 km/h (3 Bft) 100,00 %
05.07.2016 13:28 25,5 C 50 % 1014,1 hPa 0,0 l/m 6,6 km/h (2 Bft) W 274 0 min 0,000 mm 4,2 UV-I 415 W/m 14,3 C 25,5 C 11,3 km/h (2 Bft) 97,87 %
05.07.2016 13:30 25,3 C 51 % 1014,1 hPa 0,0 l/m 1,6 km/h (1 Bft) W 274 0 min 0,000 mm 4,1 UV-I 397 W/m 14,4 C 25,3 C 4,8 km/h (1 Bft) 100,00 %
05.07.2016 13:32 25,2 C 50 % 1014,1 hPa 0,0 l/m 5,8 km/h (2 Bft) W-NW 286 0 min 0,000 mm 4,0 UV-I 369 W/m 14,0 C 25,2 C 11,3 km/h (2 Bft) 100,00 %
05.07.2016 13:34 25,2 C 51 % 1014,1 hPa 0,0 l/m 4,6 km/h (1 Bft) W-NW 290 0 min 0,000 mm 4,2 UV-I 386 W/m 14,3 C 25,2 C 6,4 km/h (2 Bft) 97,87 %
05.07.2016 13:36 25,1 C 45 % 1014,1 hPa 0,0 l/m 3,4 km/h (1 Bft) W-SW 248 0 min 0,000 mm 4,2 UV-I 376 W/m 12,3 C 25,1 C 9,7 km/h (2 Bft) 100,00 %
05.07.2016 13:38 25,1 C 51 % 1014,0 hPa 0,0 l/m 3,3 km/h (1 Bft) NW 304 0 min 0,000 mm 4,4 UV-I 392 W/m 14,2 C 25,1 C 4,8 km/h (1 Bft) 100,00 %
05.07.2016 13:40 25,1 C 47 % 1014,0 hPa 0,0 l/m 2,2 km/h (1 Bft) NW 306 0 min 0,000 mm 4,7 UV-I 378 W/m 13,0 C 25,1 C 4,8 km/h (1 Bft) 93,62 %
05.07.2016 13:42 25,1 C 49 % 1014,0 hPa 0,0 l/m 6,7 km/h (2 Bft) W-SW 252 0 min 0,000 mm 5,7 UV-I 378 W/m 13,6 C 25,0 C 11,3 km/h (2 Bft) 97,87 %
05.07.2016 13:44 25,2 C 46 % 1014,0 hPa 0,0 l/m 4,0 km/h (1 Bft) W 259 0 min 0,000 mm 5,2 UV-I 378 W/m 12,7 C 25,2 C 6,4 km/h (2 Bft) 97,87 %
05.07.2016 13:46 25,4 C 46 % 1014,0 hPa 0,0 l/m 5,2 km/h (1 Bft) W 275 2 min 0,000 mm 7,2 UV-I 557 W/m 12,9 C 25,4 C 9,7 km/h (2 Bft) 95,74 %
05.07.2016 13:48 25,6 C 49 % 1013,9 hPa 0,0 l/m 3,9 km/h (1 Bft) W 268 2 min 0,000 mm 7,3 UV-I 1003 W/m 14,1 C 25,6 C 6,4 km/h (2 Bft) 100,00 %
05.07.2016 13:50 25,7 C 45 % 1013,9 hPa 0,0 l/m 1,8 km/h (1 Bft) S 169 2 min 0,000 mm 7,1 UV-I 969 W/m 12,9 C 25,7 C 6,4 km/h (2 Bft) 97,83 %
05.07.2016 13:52 25,8 C 44 % 1013,8 hPa 0,0 l/m 1,2 km/h (1 Bft) SW 217 2 min 0,000 mm 7,2 UV-I 1003 W/m 12,6 C 25,8 C 3,2 km/h (1 Bft) 97,87 %
05.07.2016 13:54 26,0 C 48 % 1013,7 hPa 0,0 l/m 1,7 km/h (1 Bft) N-NW 329 2 min 0,000 mm 7,1 UV-I 1017 W/m 14,1 C 26,0 C 3,2 km/h (1 Bft) 97,87 %
05.07.2016 13:56 26,2 C 50 % 1013,6 hPa 0,0 l/m 3,7 km/h (1 Bft) N-NO 19 2 min 0,000 mm 7,4 UV-I 1006 W/m 14,9 C 26,2 C 6,4 km/h (2 Bft) 97,92 %
05.07.2016 13:58 26,3 C 47 % 1013,6 hPa 0,0 l/m 3,6 km/h (1 Bft) N-NO 22 2 min 0,000 mm 7,3 UV-I 979 W/m 14,1 C 26,3 C 8,0 km/h (2 Bft) 100,00 %
05.07.2016 14:00 26,3 C 53 % 1013,6 hPa 0,0 l/m 3,1 km/h (1 Bft) W-NW 292 2 min 0,000 mm 7,0 UV-I 935 W/m 15,9 C 26,3 C 6,4 km/h (2 Bft) 97,87 %
05.07.2016 14:02 26,4 C 52 % 1013,6 hPa 0,0 l/m 1,9 km/h (1 Bft) N-NW 339 2 min 0,508 mm 6,8 UV-I 902 W/m 15,7 C 26,4 C 4,8 km/h (1 Bft) 97,56 %
05.07.2016 14:04 26,3 C 47 % 1013,6 hPa 0,0 l/m 3,2 km/h (1 Bft) NW 309 2 min 0,000 mm 6,7 UV-I 884 W/m 14,1 C 26,3 C 6,4 km/h (2 Bft) 100,00 %
05.07.2016 14:06 26,3 C 49 % 1013,6 hPa 0,0 l/m 2,5 km/h (1 Bft) W 267 2 min 0,000 mm 6,7 UV-I 883 W/m 14,7 C 26,3 C 9,7 km/h (2 Bft) 97,87 %
05.07.2016 14:08 26,3 C 48 % 1013,6 hPa 0,0 l/m 2,7 km/h (1 Bft) W-NW 297 2 min 0,000 mm 6,7 UV-I 881 W/m 14,4 C 26,3 C 6,4 km/h (2 Bft) 95,74 %
05.07.2016 14:10 26,3 C 48 % 1013,5 hPa 0,0 l/m 2,3 km/h (1 Bft) W 273 2 min 0,000 mm 6,7 UV-I 882 W/m 14,4 C 26,3 C 9,7 km/h (2 Bft) 91,49 %
05.07.2016 14:12 26,3 C 47 % 1013,5 hPa 0,0 l/m 4,2 km/h (1 Bft) NW 310 2 min 0,000 mm 6,7 UV-I 894 W/m 14,1 C 26,3 C 6,4 km/h (2 Bft) 95,74 %
05.07.2016 14:14 26,4 C 47 % 1013,5 hPa 0,0 l/m 4,1 km/h (1 Bft) W-SW 237 2 min 0,000 mm 6,7 UV-I 892 W/m 14,2 C 26,4 C 6,4 km/h (2 Bft) 93,62 %
05.07.2016 14:16 26,6 C 46 % 1013,5 hPa 0,0 l/m 7,0 km/h (2 Bft) SW 216 2 min 0,000 mm 6,7 UV-I 878 W/m 14,0 C 26,5 C 12,9 km/h (3 Bft) 98,00 %
05.07.2016 14:18 26,6 C 48 % 1013,5 hPa 0,0 l/m 6,6 km/h (2 Bft) W-SW 257 2 min 0,000 mm 6,7 UV-I 874 W/m 14,7 C 26,6 C 12,9 km/h (3 Bft) 91,49 %
05.07.2016 14:20 26,6 C 45 % 1013,5 hPa 0,0 l/m 4,2 km/h (1 Bft) W-NW 290 2 min 0,000 mm 6,6 UV-I 865 W/m 13,7 C 26,6 C 8,0 km/h (2 Bft) 95,74 %
05.07.2016 14:22 26,5 C 47 % 1013,5 hPa 0,0 l/m 2,3 km/h (1 Bft) W 268 2 min 0,000 mm 6,6 UV-I 864 W/m 14,3 C 26,5 C 4,8 km/h (1 Bft) 97,87 %
05.07.2016 14:24 26,6 C 44 % 1013,5 hPa 0,0 l/m 8,4 km/h (2 Bft) W-NW 284 2 min 0,000 mm 6,6 UV-I 859 W/m 13,3 C 26,2 C 14,5 km/h (3 Bft) 92,11 %
05.07.2016 14:26 26,6 C 46 % 1013,4 hPa 0,0 l/m 7,3 km/h (2 Bft) N 11 2 min 0,000 mm 6,5 UV-I 854 W/m 14,0 C 26,4 C 12,9 km/h (3 Bft) 97,87 %
05.07.2016 14:28 26,5 C 50 % 1013,4 hPa 0,0 l/m 5,4 km/h (1 Bft) S-SW 200 2 min 0,000 mm 6,4 UV-I 849 W/m 15,2 C 26,5 C 9,7 km/h (2 Bft) 97,87 %
05.07.2016 14:30 26,4 C 46 % 1013,3 hPa 0,0 l/m 3,8 km/h (1 Bft) W-SW 254 2 min 0,000 mm 6,4 UV-I 850 W/m 13,8 C 26,4 C 9,7 km/h (2 Bft) 93,75 %
05.07.2016 14:32 26,3 C 46 % 1013,3 hPa 0,0 l/m 1,8 km/h (1 Bft) W-NW 284 2 min 0,000 mm 6,4 UV-I 849 W/m 13,7 C 26,3 C 4,8 km/h (1 Bft) 95,74 %
05.07.2016 14:34 26,4 C 49 % 1013,3 hPa 0,0 l/m 6,0 km/h (2 Bft) S-SW 198 2 min 0,000 mm 6,3 UV-I 850 W/m 14,8 C 26,4 C 16,1 km/h (3 Bft) 97,87 %
05.07.2016 14:36 26,7 C 46 % 1013,2 hPa 0,0 l/m 5,8 km/h (2 Bft) W-SW 255 2 min 0,000 mm 6,2 UV-I 855 W/m 14,1 C 26,7 C 8,0 km/h (2 Bft) 85,11 %
05.07.2016 14:38 26,9 C 49 % 1013,3 hPa 0,0 l/m 4,9 km/h (1 Bft) NW 304 2 min 0,000 mm 6,2 UV-I 859 W/m 15,3 C 26,9 C 8,0 km/h (2 Bft) 78,72 %
05.07.2016 14:40 26,9 C 47 % 1013,2 hPa 0,0 l/m 5,2 km/h (1 Bft) S 177 2 min 0,000 mm 6,2 UV-I 849 W/m 14,6 C 26,9 C 11,3 km/h (2 Bft) 85,11 %
05.07.2016 14:42 27,0 C 50 % 1013,2 hPa 0,0 l/m 7,1 km/h (2 Bft) W 268 2 min 0,000 mm 6,1 UV-I 850 W/m 15,7 C 26,9 C 12,9 km/h (3 Bft) 78,05 %
05.07.2016 14:44 27,0 C 52 % 1013,3 hPa 0,0 l/m 6,1 km/h (2 Bft) W-SW 241 2 min 0,000 mm 5,8 UV-I 784 W/m 16,3 C 27,0 C 12,9 km/h (3 Bft) 86,00 %
05.07.2016 14:46 26,8 C 46 % 1013,3 hPa 0,0 l/m 11,0 km/h (2 Bft) W-SW 241 2 min 0,000 mm 5,8 UV-I 615 W/m 14,2 C 26,0 C 17,7 km/h (3 Bft) 72,00 %
05.07.2016 14:48 26,7 C 46 % 1013,3 hPa 0,0 l/m 5,8 km/h (2 Bft) N-NW 342 2 min 0,000 mm 5,9 UV-I 704 W/m 14,1 C 26,7 C 11,3 km/h (2 Bft) 76,60 %
05.07.2016 14:50 26,6 C 47 % 1013,1 hPa 0,0 l/m 4,7 km/h (1 Bft) W 279 2 min 0,000 mm 6,0 UV-I 834 W/m 14,3 C 26,6 C 11,3 km/h (2 Bft) 76,00 %
05.07.2016 14:52 26,7 C 49 % 1013,1 hPa 0,0 l/m 7,6 km/h (2 Bft) S-SW 193 2 min 0,000 mm 6,0 UV-I 835 W/m 15,1 C 26,5 C 12,9 km/h (3 Bft) 70,83 %
05.07.2016 14:54 26,8 C 48 % 1013,1 hPa 0,0 l/m 6,3 km/h (2 Bft) SW 236 2 min 0,000 mm 6,0 UV-I 833 W/m 14,9 C 26,8 C 9,7 km/h (2 Bft) 87,23 %
05.07.2016 14:56 26,8 C 47 % 1013,1 hPa 0,0 l/m 7,8 km/h (2 Bft) W 263 2 min 0,000 mm 5,7 UV-I 812 W/m 14,5 C 26,5 C 11,3 km/h (2 Bft) 72,34 %
05.07.2016 14:58 26,9 C 49 % 1013,0 hPa 0,0 l/m 7,5 km/h (2 Bft) W-SW 254 2 min 0,000 mm 5,7 UV-I 803 W/m 15,3 C 26,7 C 12,9 km/h (3 Bft) 85,11 %
05.07.2016 15:00 26,9 C 52 % 1013,0 hPa 0,0 l/m 8,1 km/h (2 Bft) W 270 2 min 0,000 mm 5,7 UV-I 805 W/m 16,2 C 26,6 C 19,3 km/h (3 Bft) 89,36 %
05.07.2016 15:02 27,0 C 50 % 1012,9 hPa 0,0 l/m 3,5 km/h (1 Bft) W-SW 244 2 min 0,584 mm 5,8 UV-I 823 W/m 15,7 C 27,0 C 8,0 km/h (2 Bft) 77,78 %
05.07.2016 15:04 27,1 C 51 % 1013,0 hPa 0,0 l/m 6,4 km/h (2 Bft) N-NW 333 2 min 0,000 mm 5,8 UV-I 827 W/m 16,1 C 27,1 C 12,9 km/h (3 Bft) 80,85 %
05.07.2016 15:06 27,1 C 48 % 1012,9 hPa 0,0 l/m 6,9 km/h (2 Bft) W-SW 258 2 min 0,000 mm 5,7 UV-I 816 W/m 15,1 C 27,0 C 12,9 km/h (3 Bft) 83,33 %
05.07.2016 15:08 27,0 C 48 % 1012,9 hPa 0,0 l/m 8,7 km/h (2 Bft) W 268 2 min 0,000 mm 5,5 UV-I 807 W/m 15,0 C 26,6 C 14,5 km/h (3 Bft) 97,87 %
05.07.2016 15:10 26,9 C 53 % 1012,9 hPa 0,0 l/m 5,3 km/h (1 Bft) W 278 2 min 0,000 mm 5,4 UV-I 797 W/m 16,5 C 26,9 C 9,7 km/h (2 Bft) 93,62 %
05.07.2016 15:12 27,1 C 48 % 1012,9 hPa 0,0 l/m 4,0 km/h (1 Bft) W-NW 298 2 min 0,000 mm 5,3 UV-I 795 W/m 15,1 C 27,1 C 11,3 km/h (2 Bft) 97,87 %
05.07.2016 15:14 26,9 C 52 % 1012,8 hPa 0,0 l/m 3,1 km/h (1 Bft) NW 321 2 min 0,000 mm 5,5 UV-I 815 W/m 16,2 C 26,9 C 8,0 km/h (2 Bft) 89,36 %
05.07.2016 15:16 27,0 C 48 % 1012,8 hPa 0,0 l/m 4,2 km/h (1 Bft) W-SW 237 2 min 0,000 mm 5,4 UV-I 808 W/m 15,0 C 27,0 C 12,9 km/h (3 Bft) 98,00 %
05.07.2016 15:18 27,1 C 52 % 1012,8 hPa 0,0 l/m 3,0 km/h (1 Bft) W-SW 237 2 min 0,000 mm 5,4 UV-I 800 W/m 16,4 C 27,1 C 8,0 km/h (2 Bft) 95,74 %
05.07.2016 15:20 27,1 C 52 % 1012,8 hPa 0,0 l/m 2,0 km/h (1 Bft) NW 309 2 min 0,000 mm 5,2 UV-I 795 W/m 16,4 C 27,1 C 4,8 km/h (1 Bft) 89,80 %
05.07.2016 15:22 27,1 C 52 % 1012,8 hPa 0,0 l/m 4,5 km/h (1 Bft) N-NO 20 2 min 0,000 mm 5,1 UV-I 752 W/m 16,4 C 27,1 C 12,9 km/h (3 Bft) 74,47 %
05.07.2016 15:24 27,1 C 53 % 1012,8 hPa 0,0 l/m 4,7 km/h (1 Bft) NW 319 2 min 0,000 mm 5,1 UV-I 784 W/m 16,7 C 27,1 C 11,3 km/h (2 Bft) 72,34 %
05.07.2016 15:26 27,2 C 52 % 1012,8 hPa 0,0 l/m 4,1 km/h (1 Bft) W-NW 284 2 min 0,000 mm 5,1 UV-I 786 W/m 16,5 C 27,2 C 8,0 km/h (2 Bft) 76,60 %
05.07.2016 15:28 27,1 C 50 % 1012,8 hPa 0,0 l/m 3,4 km/h (1 Bft) NW 309 2 min 0,000 mm 5,1 UV-I 797 W/m 15,8 C 27,1 C 6,4 km/h (2 Bft) 74,47 %
05.07.2016 15:30 27,1 C 52 % 1012,7 hPa 0,0 l/m 4,7 km/h (1 Bft) W-NW 293 2 min 0,000 mm 5,0 UV-I 824 W/m 16,4 C 27,1 C 11,3 km/h (2 Bft) 84,00 %
05.07.2016 15:32 26,9 C 50 % 1012,8 hPa 0,0 l/m 4,4 km/h (1 Bft) N-NO 17 2 min 0,000 mm 4,1 UV-I 736 W/m 15,6 C 26,9 C 11,3 km/h (2 Bft) 78,05 %
05.07.2016 15:34 26,7 C 51 % 1012,7 hPa 0,0 l/m 3,7 km/h (1 Bft) NW 307 2 min 0,000 mm 4,5 UV-I 728 W/m 15,7 C 26,7 C 11,3 km/h (2 Bft) 89,36 %
05.07.2016 15:36 26,6 C 53 % 1012,7 hPa 0,0 l/m 3,3 km/h (1 Bft) W-NW 298 0 min 0,000 mm 2,9 UV-I 410 W/m 16,2 C 26,6 C 6,4 km/h (2 Bft) 89,36 %
05.07.2016 15:38 26,3 C 51 % 1012,7 hPa 0,0 l/m 1,8 km/h (1 Bft) NW 311 0 min 0,000 mm 2,8 UV-I 214 W/m 15,3 C 26,3 C 4,8 km/h (1 Bft) 93,62 %
05.07.2016 15:40 26,1 C 51 % 1012,7 hPa 0,0 l/m 1,7 km/h (1 Bft) NW 311 0 min 0,000 mm 2,7 UV-I 211 W/m 15,2 C 26,1 C 3,2 km/h (1 Bft) 92,00 %
05.07.2016 15:42 26,0 C 52 % 1012,6 hPa 0,0 l/m 1,8 km/h (1 Bft) NW 311 0 min 0,000 mm 2,8 UV-I 256 W/m 15,4 C 26,0 C 3,2 km/h (1 Bft) 76,32 %
05.07.2016 15:44 26,0 C 51 % 1012,6 hPa 0,0 l/m 1,6 km/h (1 Bft) NW 311 0 min 0,000 mm 3,1 UV-I 271 W/m 15,1 C 26,0 C 1,6 km/h (1 Bft) 66,67 %
05.07.2016 15:48 26,6 C 51 % 1012,5 hPa 0,0 l/m 1,5 km/h (1 Bft) NW 325 4 min 0,000 mm 4,7 UV-I 783 W/m 15,6 C 26,6 C 4,8 km/h (1 Bft) 99,26 %
05.07.2016 15:50 26,7 C 49 % 1012,4 hPa 0,0 l/m 2,5 km/h (1 Bft) N 355 2 min 0,000 mm 4,5 UV-I 757 W/m 15,1 C 26,7 C 4,8 km/h (1 Bft) 100,00 %
05.07.2016 15:52 26,6 C 52 % 1012,4 hPa 0,0 l/m 2,2 km/h (1 Bft) NW 304 2 min 0,000 mm 4,5 UV-I 742 W/m 15,9 C 26,6 C 4,8 km/h (1 Bft) 100,00 %
05.07.2016 15:54 26,8 C 48 % 1012,4 hPa 0,0 l/m 2,3 km/h (1 Bft) W-NW 298 2 min 0,000 mm 4,4 UV-I 732 W/m 14,9 C 26,8 C 4,8 km/h (1 Bft) 100,00 %
05.07.2016 15:56 26,8 C 47 % 1012,4 hPa 0,0 l/m 1,7 km/h (1 Bft) NW 324 2 min 0,000 mm 4,3 UV-I 744 W/m 14,5 C 26,8 C 4,8 km/h (1 Bft) 98,11 %
05.07.2016 15:58 26,9 C 53 % 1012,2 hPa 0,0 l/m 3,9 km/h (1 Bft) N-NW 333 2 min 0,000 mm 4,4 UV-I 761 W/m 16,5 C 26,9 C 8,0 km/h (2 Bft) 100,00 %
05.07.2016 16:00 26,9 C 50 % 1012,2 hPa 0,0 l/m 2,8 km/h (1 Bft) NO 49 2 min 0,482 mm 4,2 UV-I 770 W/m 15,6 C 26,9 C 6,4 km/h (2 Bft) 97,87 %
05.07.2016 16:02 26,9 C 47 % 1012,2 hPa 0,0 l/m 0,4 km/h (0 Bft) NO 49 2 min 0,000 mm 4,3 UV-I 763 W/m 14,6 C 26,9 C 1,6 km/h (1 Bft) 97,37 %
05.07.2016 16:04 27,0 C 50 % 1012,2 hPa 0,0 l/m 0,8 km/h (0 Bft) N-NW 347 2 min 0,000 mm 4,2 UV-I 740 W/m 15,7 C 27,0 C 3,2 km/h (1 Bft) 100,00 %
05.07.2016 16:06 27,2 C 52 % 1012,2 hPa 0,0 l/m 0,6 km/h (0 Bft) N-NW 346 2 min 0,000 mm 4,1 UV-I 732 W/m 16,5 C 27,2 C 1,6 km/h (1 Bft) 97,87 %
05.07.2016 16:08 27,3 C 52 % 1012,1 hPa 0,0 l/m 1,1 km/h (1 Bft) N-NW 348 2 min 0,000 mm 4,0 UV-I 731 W/m 16,6 C 27,3 C 3,2 km/h (1 Bft) 98,21 %
05.07.2016 16:10 27,4 C 47 % 1012,1 hPa 0,0 l/m 4,9 km/h (1 Bft) S-SW 200 2 min 0,000 mm 3,8 UV-I 721 W/m 15,1 C 27,4 C 12,9 km/h (3 Bft) 97,56 %
05.07.2016 16:12 27,4 C 48 % 1012,1 hPa 0,0 l/m 7,0 km/h (2 Bft) W 280 2 min 0,000 mm 2,8 UV-I 716 W/m 15,4 C 27,3 C 14,5 km/h (3 Bft) 95,74 %
05.07.2016 16:14 27,7 C 47 % 1012,1 hPa 0,0 l/m 5,7 km/h (1 Bft) W-SW 255 2 min 0,000 mm 3,7 UV-I 732 W/m 15,3 C 27,7 C 12,9 km/h (3 Bft) 97,56 %
05.07.2016 16:16 27,7 C 49 % 1012,1 hPa 0,0 l/m 5,5 km/h (1 Bft) NW 317 2 min 0,000 mm 3,9 UV-I 709 W/m 16,0 C 27,7 C 12,9 km/h (3 Bft) 96,00 %
05.07.2016 16:18 27,6 C 46 % 1012,1 hPa 0,0 l/m 2,1 km/h (1 Bft) N 5 2 min 0,000 mm 3,8 UV-I 697 W/m 14,9 C 27,6 C 4,8 km/h (1 Bft) 98,11 %
05.07.2016 16:20 27,6 C 46 % 1012,0 hPa 0,0 l/m 3,9 km/h (1 Bft) W-NW 296 2 min 0,000 mm 3,7 UV-I 690 W/m 14,9 C 27,6 C 6,4 km/h (2 Bft) 97,56 %
05.07.2016 16:22 27,6 C 50 % 1012,0 hPa 0,0 l/m 2,4 km/h (1 Bft) NW 304 2 min 0,000 mm 3,7 UV-I 680 W/m 16,2 C 27,6 C 6,4 km/h (2 Bft) 97,87 %
05.07.2016 16:24 27,5 C 45 % 1012,0 hPa 0,0 l/m 7,6 km/h (2 Bft) W-SW 238 2 min 0,000 mm 3,6 UV-I 678 W/m 14,5 C 27,3 C 12,9 km/h (3 Bft) 97,44 %
05.07.2016 16:26 27,7 C 44 % 1012,1 hPa 0,0 l/m 10,6 km/h (2 Bft) W-NW 284 2 min 0,000 mm 3,5 UV-I 668 W/m 14,3 C 27,1 C 14,5 km/h (3 Bft) 97,87 %
05.07.2016 16:28 27,7 C 42 % 1012,0 hPa 0,0 l/m 7,1 km/h (2 Bft) S-SW 200 2 min 0,000 mm 3,5 UV-I 667 W/m 13,6 C 27,6 C 14,5 km/h (3 Bft) 98,21 %
05.07.2016 16:30 27,9 C 42 % 1012,0 hPa 0,0 l/m 11,5 km/h (2 Bft) SW 234 2 min 0,000 mm 3,4 UV-I 666 W/m 13,8 C 27,2 C 19,3 km/h (3 Bft) 95,74 %
05.07.2016 16:32 27,9 C 41 % 1012,0 hPa 0,0 l/m 19,5 km/h (3 Bft) SW 234 2 min 0,000 mm 3,3 UV-I 616 W/m 13,4 C 26,4 C 25,7 km/h (4 Bft) 100,00 %
05.07.2016 16:34 27,9 C 42 % 1012,0 hPa 0,0 l/m 8,9 km/h (2 Bft) W 271 2 min 0,000 mm 3,1 UV-I 617 W/m 13,8 C 27,5 C 14,5 km/h (3 Bft) 100,00 %
05.07.2016 16:36 27,7 C 42 % 1011,9 hPa 0,0 l/m 11,9 km/h (2 Bft) W-SW 256 2 min 0,000 mm 2,7 UV-I 656 W/m 13,6 C 26,9 C 17,7 km/h (3 Bft) 98,21 %
05.07.2016 16:38 27,6 C 43 % 1011,9 hPa 0,0 l/m 11,1 km/h (2 Bft) W-SW 254 2 min 0,000 mm 3,2 UV-I 659 W/m 13,9 C 26,9 C 22,5 km/h (4 Bft) 98,21 %
05.07.2016 16:40 27,7 C 43 % 1011,9 hPa 0,0 l/m 14,0 km/h (3 Bft) W 270 2 min 0,000 mm 3,1 UV-I 657 W/m 14,0 C 26,7 C 22,5 km/h (4 Bft) 95,12 %
05.07.2016 16:42 27,7 C 42 % 1011,9 hPa 0,0 l/m 11,7 km/h (2 Bft) SW 223 2 min 0,000 mm 2,4 UV-I 501 W/m 13,6 C 26,9 C 17,7 km/h (3 Bft) 98,00 %
05.07.2016 16:44 27,6 C 43 % 1011,9 hPa 0,0 l/m 9,0 km/h (2 Bft) W-SW 248 0 min 0,000 mm 2,3 UV-I 145 W/m 13,9 C 27,2 C 12,9 km/h (3 Bft) 98,00 %
05.07.2016 16:46 27,5 C 43 % 1011,9 hPa 0,0 l/m 12,1 km/h (2 Bft) W-SW 252 2 min 0,000 mm 3,0 UV-I 479 W/m 13,8 C 26,7 C 19,3 km/h (3 Bft) 97,73 %
05.07.2016 16:48 27,6 C 41 % 1011,9 hPa 0,0 l/m 16,4 km/h (3 Bft) W-SW 249 2 min 0,000 mm 2,9 UV-I 629 W/m 13,1 C 26,3 C 29,0 km/h (5 Bft) 97,56 %
05.07.2016 16:50 27,7 C 41 % 1011,9 hPa 0,0 l/m 17,3 km/h (3 Bft) W-SW 252 2 min 0,000 mm 2,8 UV-I 581 W/m 13,2 C 26,4 C 25,7 km/h (4 Bft) 100,00 %
05.07.2016 16:52 27,7 C 40 % 1011,8 hPa 0,0 l/m 19,8 km/h (3 Bft) W-SW 244 2 min 0,000 mm 2,8 UV-I 558 W/m 12,9 C 26,2 C 27,4 km/h (4 Bft) 100,00 %
05.07.2016 16:54 27,7 C 40 % 1011,8 hPa 0,0 l/m 11,9 km/h (2 Bft) W-SW 240 2 min 0,000 mm 2,7 UV-I 558 W/m 12,9 C 26,9 C 20,9 km/h (4 Bft) 100,00 %
05.07.2016 16:56 27,6 C 41 % 1011,8 hPa 0,0 l/m 11,6 km/h (2 Bft) W 259 2 min 0,000 mm 2,5 UV-I 576 W/m 13,1 C 26,8 C 17,7 km/h (3 Bft) 100,00 %
05.07.2016 16:58 27,6 C 41 % 1011,9 hPa 0,0 l/m 15,9 km/h (3 Bft) W-SW 247 2 min 0,000 mm 2,6 UV-I 594 W/m 13,1 C 26,4 C 19,3 km/h (3 Bft) 100,00 %
05.07.2016 17:00 27,6 C 42 % 1011,8 hPa 0,0 l/m 18,7 km/h (3 Bft) W-SW 250 2 min 0,483 mm 2,6 UV-I 608 W/m 13,5 C 26,1 C 24,1 km/h (4 Bft) 100,00 %
05.07.2016 17:02 27,6 C 41 % 1011,8 hPa 0,0 l/m 12,8 km/h (3 Bft) W-NW 292 2 min 0,000 mm 2,5 UV-I 559 W/m 13,1 C 26,7 C 19,3 km/h (3 Bft) 100,00 %
05.07.2016 17:04 27,6 C 43 % 1011,8 hPa 0,0 l/m 9,3 km/h (2 Bft) W 278 2 min 0,000 mm 2,4 UV-I 528 W/m 13,9 C 27,1 C 19,3 km/h (3 Bft) 100,00 %
05.07.2016 17:06 27,7 C 42 % 1011,8 hPa 0,0 l/m 13,0 km/h (3 Bft) SW 220 2 min 0,000 mm 2,5 UV-I 563 W/m 13,6 C 26,8 C 20,9 km/h (4 Bft) 100,00 %
05.07.2016 17:08 27,7 C 43 % 1011,8 hPa 0,0 l/m 11,4 km/h (2 Bft) W-SW 242 2 min 0,000 mm 2,5 UV-I 568 W/m 14,0 C 27,0 C 20,9 km/h (4 Bft) 100,00 %
05.07.2016 17:10 27,8 C 42 % 1011,6 hPa 0,0 l/m 13,3 km/h (3 Bft) W-SW 252 2 min 0,000 mm 2,4 UV-I 525 W/m 13,7 C 26,9 C 19,3 km/h (3 Bft) 100,00 %
05.07.2016 17:12 27,7 C 43 % 1011,6 hPa 0,0 l/m 7,2 km/h (2 Bft) W-NW 301 2 min 0,000 mm 2,1 UV-I 490 W/m 14,0 C 27,6 C 14,5 km/h (3 Bft) 100,00 %
05.07.2016 17:14 27,6 C 44 % 1011,7 hPa 0,0 l/m 8,7 km/h (2 Bft) W-SW 244 2 min 0,000 mm 2,0 UV-I 437 W/m 14,2 C 27,2 C 17,7 km/h (3 Bft) 100,00 %
05.07.2016 17:16 27,6 C 45 % 1011,6 hPa 0,0 l/m 9,6 km/h (2 Bft) W 264 2 min 0,000 mm 2,1 UV-I 522 W/m 14,6 C 27,1 C 17,7 km/h (3 Bft) 100,00 %
05.07.2016 17:18 27,6 C 43 % 1011,6 hPa 0,0 l/m 10,3 km/h (2 Bft) W-SW 245 2 min 0,000 mm 2,0 UV-I 457 W/m 13,9 C 27,0 C 17,7 km/h (3 Bft) 100,00 %
05.07.2016 17:20 27,5 C 43 % 1011,5 hPa 0,0 l/m 11,4 km/h (2 Bft) SW 223 2 min 0,000 mm 2,0 UV-I 440 W/m 13,8 C 26,7 C 16,1 km/h (3 Bft) 100,00 %
05.07.2016 17:22 27,4 C 44 % 1011,6 hPa 0,0 l/m 11,8 km/h (2 Bft) W 259 0 min 0,000 mm 1,7 UV-I 269 W/m 14,0 C 26,6 C 19,3 km/h (3 Bft) 100,00 %
05.07.2016 17:24 27,4 C 44 % 1011,5 hPa 0,0 l/m 10,0 km/h (2 Bft) W-SW 252 2 min 0,000 mm 1,9 UV-I 376 W/m 14,0 C 26,8 C 17,7 km/h (3 Bft) 100,00 %
05.07.2016 17:26 27,5 C 44 % 1011,5 hPa 0,0 l/m 7,1 km/h (2 Bft) W-SW 252 2 min 0,000 mm 1,9 UV-I 461 W/m 14,1 C 27,4 C 11,3 km/h (2 Bft) 95,12 %
05.07.2016 17:28 27,4 C 43 % 1011,5 hPa 0,0 l/m 6,9 km/h (2 Bft) NW 309 2 min 0,000 mm 1,5 UV-I 310 W/m 13,7 C 27,3 C 16,1 km/h (3 Bft) 100,00 %
05.07.2016 17:30 27,2 C 45 % 1011,5 hPa 0,0 l/m 6,3 km/h (2 Bft) W-SW 254 0 min 0,000 mm 1,4 UV-I 155 W/m 14,2 C 27,2 C 9,7 km/h (2 Bft) 100,00 %
05.07.2016 17:32 27,0 C 46 % 1011,5 hPa 0,0 l/m 5,5 km/h (1 Bft) W 272 0 min 0,000 mm 1,4 UV-I 163 W/m 14,4 C 27,0 C 8,0 km/h (2 Bft) 100,00 %
05.07.2016 17:34 26,8 C 47 % 1011,5 hPa 0,0 l/m 4,3 km/h (1 Bft) W-NW 302 0 min 0,000 mm 1,5 UV-I 264 W/m 14,5 C 26,8 C 8,0 km/h (2 Bft) 98,21 %
05.07.2016 17:36 26,7 C 47 % 1011,5 hPa 0,0 l/m 6,0 km/h (2 Bft) W 273 2 min 0,000 mm 1,5 UV-I 327 W/m 14,4 C 26,7 C 11,3 km/h (2 Bft) 98,00 %
05.07.2016 17:38 26,6 C 50 % 1011,4 hPa 0,0 l/m 1,8 km/h (1 Bft) W-SW 257 0 min 0,000 mm 1,2 UV-I 236 W/m 15,3 C 26,6 C 4,8 km/h (1 Bft) 97,56 %
05.07.2016 17:40 26,5 C 53 % 1011,4 hPa 0,0 l/m 3,0 km/h (1 Bft) W-NW 298 0 min 0,000 mm 1,4 UV-I 230 W/m 16,1 C 26,5 C 6,4 km/h (2 Bft) 100,00 %
05.07.2016 17:42 26,5 C 49 % 1011,4 hPa 0,0 l/m 6,3 km/h (2 Bft) W-SW 240 2 min 0,000 mm 1,6 UV-I 410 W/m 14,9 C 26,5 C 14,5 km/h (3 Bft) 100,00 %
05.07.2016 17:44 26,6 C 49 % 1011,4 hPa 0,0 l/m 5,8 km/h (2 Bft) W 259 2 min 0,000 mm 1,6 UV-I 519 W/m 15,0 C 26,6 C 19,3 km/h (3 Bft) 100,00 %
05.07.2016 17:46 26,9 C 48 % 1011,4 hPa 0,0 l/m 7,6 km/h (2 Bft) W 276 2 min 0,000 mm 1,6 UV-I 491 W/m 14,9 C 26,7 C 16,1 km/h (3 Bft) 100,00 %
05.07.2016 17:48 27,1 C 47 % 1011,4 hPa 0,0 l/m 4,7 km/h (1 Bft) N-NW 332 2 min 0,000 mm 1,6 UV-I 532 W/m 14,8 C 27,1 C 9,7 km/h (2 Bft) 100,00 %
05.07.2016 17:50 27,3 C 50 % 1011,4 hPa 0,0 l/m 4,9 km/h (1 Bft) W 274 2 min 0,000 mm 1,6 UV-I 506 W/m 15,9 C 27,3 C 14,5 km/h (3 Bft) 100,00 %
05.07.2016 17:52 27,4 C 44 % 1011,4 hPa 0,0 l/m 12,1 km/h (2 Bft) W-SW 246 2 min 0,000 mm 1,4 UV-I 417 W/m 14,0 C 26,5 C 17,7 km/h (3 Bft) 100,00 %
05.07.2016 17:54 27,4 C 44 % 1011,4 hPa 0,0 l/m 7,5 km/h (2 Bft) W-NW 303 2 min 0,000 mm 1,4 UV-I 423 W/m 14,0 C 27,2 C 14,5 km/h (3 Bft) 100,00 %
05.07.2016 17:56 27,4 C 45 % 1011,4 hPa 0,0 l/m 4,5 km/h (1 Bft) W-SW 243 2 min 0,000 mm 1,3 UV-I 427 W/m 14,4 C 27,4 C 12,9 km/h (3 Bft) 97,37 %
05.07.2016 17:58 27,4 C 45 % 1011,5 hPa 0,0 l/m 9,6 km/h (2 Bft) W-SW 244 2 min 0,000 mm 1,3 UV-I 398 W/m 14,4 C 26,9 C 17,7 km/h (3 Bft) 96,43 %
05.07.2016 18:00 27,3 C 45 % 1011,4 hPa 0,0 l/m 11,3 km/h (2 Bft) SW 231 2 min 0,000 mm 1,1 UV-I 343 W/m 14,3 C 26,5 C 16,1 km/h (3 Bft) 97,37 %
05.07.2016 18:02 27,3 C 43 % 1011,4 hPa 0,0 l/m 11,8 km/h (2 Bft) W 275 2 min 0,330 mm 1,2 UV-I 434 W/m 13,6 C 26,5 C 19,3 km/h (3 Bft) 98,00 %
05.07.2016 18:04 27,3 C 46 % 1011,4 hPa 0,0 l/m 5,1 km/h (1 Bft) W-SW 237 2 min 0,000 mm 1,1 UV-I 411 W/m 14,6 C 27,3 C 11,3 km/h (2 Bft) 97,87 %
05.07.2016 18:06 27,2 C 46 % 1011,4 hPa 0,0 l/m 6,2 km/h (2 Bft) W-NW 298 2 min 0,000 mm 0,9 UV-I 266 W/m 14,6 C 27,2 C 12,9 km/h (3 Bft) 97,56 %
05.07.2016 18:08 27,0 C 48 % 1011,4 hPa 0,0 l/m 3,4 km/h (1 Bft) N-NW 338 0 min 0,000 mm 1,0 UV-I 187 W/m 15,0 C 27,0 C 6,4 km/h (2 Bft) 98,21 %
05.07.2016 18:10 26,8 C 46 % 1011,4 hPa 0,0 l/m 3,3 km/h (1 Bft) W-SW 239 0 min 0,000 mm 1,1 UV-I 234 W/m 14,2 C 26,8 C 6,4 km/h (2 Bft) 97,73 %
05.07.2016 18:12 26,8 C 48 % 1011,4 hPa 0,0 l/m 4,6 km/h (1 Bft) W-SW 257 2 min 0,000 mm 1,1 UV-I 393 W/m 14,9 C 26,8 C 6,4 km/h (2 Bft) 98,00 %
05.07.2016 18:14 26,9 C 48 % 1011,5 hPa 0,0 l/m 6,7 km/h (2 Bft) W-SW 248 2 min 0,000 mm 1,1 UV-I 422 W/m 14,9 C 26,8 C 12,9 km/h (3 Bft) 93,62 %
05.07.2016 18:16 27,0 C 47 % 1011,5 hPa 0,0 l/m 9,1 km/h (2 Bft) W 263 2 min 0,000 mm 1,0 UV-I 364 W/m 14,7 C 26,5 C 19,3 km/h (3 Bft) 98,00 %
05.07.2016 18:18 27,0 C 47 % 1011,5 hPa 0,0 l/m 8,3 km/h (2 Bft) W-SW 245 2 min 0,000 mm 1,0 UV-I 372 W/m 14,7 C 26,6 C 16,1 km/h (3 Bft) 97,73 %
05.07.2016 18:20 27,1 C 46 % 1011,5 hPa 0,0 l/m 6,0 km/h (2 Bft) W-NW 288 2 min 0,000 mm 0,9 UV-I 330 W/m 14,5 C 27,1 C 11,3 km/h (2 Bft) 95,12 %
05.07.2016 18:22 27,0 C 45 % 1011,4 hPa 0,0 l/m 6,7 km/h (2 Bft) W-SW 239 2 min 0,000 mm 0,9 UV-I 360 W/m 14,0 C 26,9 C 12,9 km/h (3 Bft) 98,00 %
05.07.2016 18:24 26,9 C 46 % 1011,4 hPa 0,0 l/m 6,8 km/h (2 Bft) W-SW 244 2 min 0,000 mm 0,9 UV-I 346 W/m 14,3 C 26,8 C 11,3 km/h (2 Bft) 98,11 %
05.07.2016 18:26 26,9 C 46 % 1011,3 hPa 0,0 l/m 4,2 km/h (1 Bft) W-NW 290 2 min 0,000 mm 0,9 UV-I 332 W/m 14,3 C 26,9 C 9,7 km/h (2 Bft) 97,44 %
05.07.2016 18:28 26,9 C 46 % 1011,3 hPa 0,0 l/m 6,5 km/h (2 Bft) W-SW 242 2 min 0,000 mm 0,9 UV-I 316 W/m 14,3 C 26,9 C 17,7 km/h (3 Bft) 98,00 %
05.07.2016 18:30 26,8 C 47 % 1011,3 hPa 0,0 l/m 7,7 km/h (2 Bft) W-SW 237 2 min 0,000 mm 0,9 UV-I 313 W/m 14,5 C 26,5 C 16,1 km/h (3 Bft) 95,74 %
05.07.2016 18:32 26,8 C 46 % 1011,3 hPa 0,0 l/m 10,4 km/h (2 Bft) W-SW 244 2 min 0,000 mm 0,8 UV-I 325 W/m 14,2 C 26,1 C 19,3 km/h (3 Bft) 97,56 %
05.07.2016 18:34 26,9 C 47 % 1011,2 hPa 0,0 l/m 4,1 km/h (1 Bft) W-SW 249 2 min 0,000 mm 0,8 UV-I 347 W/m 14,6 C 26,9 C 6,4 km/h (2 Bft) 98,21 %
05.07.2016 18:36 26,9 C 46 % 1011,3 hPa 0,0 l/m 7,4 km/h (2 Bft) SW 231 2 min 0,000 mm 0,8 UV-I 339 W/m 14,3 C 26,7 C 12,9 km/h (3 Bft) 94,74 %
05.07.2016 18:38 26,9 C 47 % 1011,2 hPa 0,0 l/m 8,1 km/h (2 Bft) W 272 2 min 0,000 mm 0,8 UV-I 331 W/m 14,6 C 26,6 C 14,5 km/h (3 Bft) 98,21 %
05.07.2016 18:40 26,9 C 47 % 1011,2 hPa 0,0 l/m 7,6 km/h (2 Bft) W 267 2 min 0,000 mm 0,8 UV-I 329 W/m 14,6 C 26,7 C 12,9 km/h (3 Bft) 97,73 %
05.07.2016 18:42 26,9 C 48 % 1011,2 hPa 0,0 l/m 6,3 km/h (2 Bft) W-SW 244 2 min 0,000 mm 0,8 UV-I 330 W/m 14,9 C 26,9 C 11,3 km/h (2 Bft) 100,00 %
05.07.2016 18:44 26,9 C 47 % 1011,2 hPa 0,0 l/m 4,8 km/h (1 Bft) SW 232 2 min 0,000 mm 0,7 UV-I 320 W/m 14,6 C 26,9 C 9,7 km/h (2 Bft) 100,00 %
05.07.2016 18:48 26,8 C 47 % 1011,2 hPa 0,0 l/m 5,6 km/h (1 Bft) W 274 4 min 0,000 mm 0,7 UV-I 303 W/m 14,5 C 26,8 C 11,3 km/h (2 Bft) 99,16 %
05.07.2016 18:50 26,7 C 49 % 1011,2 hPa 0,0 l/m 6,2 km/h (2 Bft) W-SW 250 2 min 0,000 mm 0,7 UV-I 303 W/m 15,1 C 26,7 C 14,5 km/h (3 Bft) 100,00 %
05.07.2016 18:52 26,7 C 49 % 1011,2 hPa 0,0 l/m 4,3 km/h (1 Bft) W-NW 293 2 min 0,000 mm 0,6 UV-I 271 W/m 15,1 C 26,7 C 12,9 km/h (3 Bft) 100,00 %
05.07.2016 18:54 26,7 C 48 % 1011,2 hPa 0,0 l/m 5,0 km/h (1 Bft) NW 315 2 min 0,000 mm 0,6 UV-I 291 W/m 14,8 C 26,7 C 12,9 km/h (3 Bft) 100,00 %
05.07.2016 18:56 26,7 C 48 % 1011,2 hPa 0,0 l/m 5,1 km/h (1 Bft) NW 320 2 min 0,000 mm 0,6 UV-I 292 W/m 14,8 C 26,7 C 9,7 km/h (2 Bft) 100,00 %
05.07.2016 18:58 26,7 C 49 % 1011,1 hPa 0,0 l/m 3,4 km/h (1 Bft) NW 305 2 min 0,000 mm 0,6 UV-I 287 W/m 15,1 C 26,7 C 6,4 km/h (2 Bft) 100,00 %
05.07.2016 19:00 26,7 C 47 % 1011,1 hPa 0,0 l/m 6,2 km/h (2 Bft) N 10 2 min 0,000 mm 0,5 UV-I 279 W/m 14,4 C 26,7 C 14,5 km/h (3 Bft) 100,00 %
05.07.2016 19:02 26,7 C 50 % 1011,2 hPa 0,0 l/m 3,6 km/h (1 Bft) W-SW 245 2 min 0,254 mm 0,5 UV-I 245 W/m 15,4 C 26,7 C 12,9 km/h (3 Bft) 98,11 %
05.07.2016 19:04 26,6 C 49 % 1011,1 hPa 0,0 l/m 5,8 km/h (2 Bft) W-SW 242 2 min 0,000 mm 0,5 UV-I 266 W/m 15,0 C 26,6 C 11,3 km/h (2 Bft) 100,00 %
05.07.2016 19:06 26,6 C 49 % 1011,1 hPa 0,0 l/m 5,5 km/h (1 Bft) W-SW 248 2 min 0,000 mm 0,5 UV-I 226 W/m 15,0 C 26,6 C 11,3 km/h (2 Bft) 100,00 %
05.07.2016 19:08 26,6 C 48 % 1011,1 hPa 0,0 l/m 5,3 km/h (1 Bft) SW 236 2 min 0,000 mm 0,5 UV-I 252 W/m 14,7 C 26,6 C 11,3 km/h (2 Bft) 97,37 %
05.07.2016 19:10 26,5 C 49 % 1011,2 hPa 0,0 l/m 7,0 km/h (2 Bft) SW 229 2 min 0,000 mm 0,5 UV-I 230 W/m 14,9 C 26,4 C 12,9 km/h (3 Bft) 100,00 %
05.07.2016 19:12 26,5 C 48 % 1011,2 hPa 0,0 l/m 5,8 km/h (2 Bft) W-SW 242 2 min 0,000 mm 0,1 UV-I 219 W/m 14,6 C 26,5 C 11,3 km/h (2 Bft) 100,00 %
05.07.2016 19:14 26,4 C 49 % 1011,2 hPa 0,0 l/m 8,1 km/h (2 Bft) W 271 2 min 0,000 mm 0,0 UV-I 199 W/m 14,8 C 26,1 C 16,1 km/h (3 Bft) 100,00 %
05.07.2016 19:16 26,3 C 49 % 1011,1 hPa 0,0 l/m 5,8 km/h (2 Bft) SW 230 2 min 0,000 mm 0,0 UV-I 201 W/m 14,7 C 26,3 C 12,9 km/h (3 Bft) 100,00 %
05.07.2016 19:18 26,3 C 48 % 1011,1 hPa 0,0 l/m 6,2 km/h (2 Bft) W-SW 242 2 min 0,000 mm 0,0 UV-I 181 W/m 14,4 C 26,3 C 12,9 km/h (3 Bft) 98,00 %
05.07.2016 19:20 26,3 C 49 % 1011,1 hPa 0,0 l/m 8,2 km/h (2 Bft) W-NW 285 2 min 0,000 mm 0,0 UV-I 155 W/m 14,7 C 25,9 C 16,1 km/h (3 Bft) 100,00 %
05.07.2016 19:22 26,3 C 49 % 1011,1 hPa 0,0 l/m 7,6 km/h (2 Bft) W-NW 288 2 min 0,000 mm 0,0 UV-I 189 W/m 14,7 C 26,0 C 12,9 km/h (3 Bft) 100,00 %
05.07.2016 19:24 26,3 C 49 % 1011,1 hPa 0,0 l/m 6,4 km/h (2 Bft) W 259 2 min 0,000 mm 0,0 UV-I 209 W/m 14,7 C 26,3 C 12,9 km/h (3 Bft) 100,00 %
05.07.2016 19:26 26,3 C 50 % 1011,0 hPa 0,0 l/m 5,3 km/h (1 Bft) SW 232 2 min 0,000 mm 0,0 UV-I 207 W/m 15,0 C 26,3 C 9,7 km/h (2 Bft) 100,00 %
05.07.2016 19:28 26,3 C 49 % 1010,9 hPa 0,0 l/m 7,4 km/h (2 Bft) W-NW 292 2 min 0,000 mm 0,0 UV-I 205 W/m 14,7 C 26,1 C 12,9 km/h (3 Bft) 100,00 %
05.07.2016 19:30 26,3 C 49 % 1010,9 hPa 0,0 l/m 6,4 km/h (2 Bft) W-SW 253 2 min 0,000 mm 0,0 UV-I 200 W/m 14,7 C 26,3 C 11,3 km/h (2 Bft) 100,00 %
05.07.2016 19:32 26,3 C 49 % 1011,0 hPa 0,0 l/m 4,2 km/h (1 Bft) W-NW 300 2 min 0,000 mm 0,0 UV-I 190 W/m 14,7 C 26,3 C 6,4 km/h (2 Bft) 98,11 %
05.07.2016 19:34 26,3 C 47 % 1010,9 hPa 0,0 l/m 6,0 km/h (2 Bft) W-SW 240 2 min 0,000 mm 0,0 UV-I 181 W/m 14,1 C 26,3 C 12,9 km/h (3 Bft) 100,00 %
05.07.2016 19:36 26,3 C 49 % 1010,9 hPa 0,0 l/m 4,7 km/h (1 Bft) W 261 2 min 0,000 mm 0,0 UV-I 175 W/m 14,7 C 26,3 C 8,0 km/h (2 Bft) 100,00 %
05.07.2016 19:38 26,3 C 50 % 1010,9 hPa 0,0 l/m 4,6 km/h (1 Bft) W-SW 243 2 min 0,000 mm 0,0 UV-I 167 W/m 15,0 C 26,3 C 9,7 km/h (2 Bft) 100,00 %
05.07.2016 19:40 26,3 C 49 % 1010,9 hPa 0,0 l/m 3,0 km/h (1 Bft) W-SW 254 2 min 0,000 mm 0,0 UV-I 159 W/m 14,7 C 26,3 C 6,4 km/h (2 Bft) 100,00 %
05.07.2016 19:42 26,3 C 50 % 1010,9 hPa 0,0 l/m 3,4 km/h (1 Bft) W-SW 238 2 min 0,000 mm 0,0 UV-I 154 W/m 15,0 C 26,3 C 6,4 km/h (2 Bft) 97,87 %
05.07.2016 19:44 26,3 C 51 % 1010,9 hPa 0,0 l/m 5,4 km/h (1 Bft) W-NW 289 2 min 0,000 mm 0,0 UV-I 150 W/m 15,3 C 26,3 C 11,3 km/h (2 Bft) 100,00 %
05.07.2016 19:46 26,2 C 52 % 1010,9 hPa 0,0 l/m 3,8 km/h (1 Bft) SW 234 2 min 0,000 mm 0,0 UV-I 147 W/m 15,6 C 26,2 C 9,7 km/h (2 Bft) 96,15 %
05.07.2016 19:48 26,1 C 52 % 1010,9 hPa 0,0 l/m 2,4 km/h (1 Bft) W 279 2 min 0,000 mm 0,0 UV-I 142 W/m 15,5 C 26,1 C 4,8 km/h (1 Bft) 97,62 %
05.07.2016 19:50 26,0 C 51 % 1010,9 hPa 0,0 l/m 2,7 km/h (1 Bft) W-SW 246 2 min 0,000 mm 0,0 UV-I 134 W/m 15,1 C 26,0 C 6,4 km/h (2 Bft) 97,73 %
05.07.2016 19:52 25,9 C 51 % 1011,0 hPa 0,0 l/m 4,1 km/h (1 Bft) W 279 2 min 0,000 mm 0,0 UV-I 127 W/m 15,0 C 25,9 C 12,9 km/h (3 Bft) 98,00 %
05.07.2016 19:54 25,9 C 51 % 1010,9 hPa 0,0 l/m 5,4 km/h (1 Bft) W-NW 286 2 min 0,000 mm 0,0 UV-I 118 W/m 15,0 C 25,9 C 14,5 km/h (3 Bft) 97,87 %
05.07.2016 19:56 25,9 C 50 % 1011,0 hPa 0,0 l/m 3,6 km/h (1 Bft) W 275 2 min 0,000 mm 0,0 UV-I 111 W/m 14,7 C 25,9 C 6,4 km/h (2 Bft) 96,00 %
05.07.2016 19:58 25,8 C 49 % 1011,0 hPa 0,0 l/m 5,1 km/h (1 Bft) NW 320 2 min 0,000 mm 0,0 UV-I 105 W/m 14,3 C 25,8 C 14,5 km/h (3 Bft) 97,73 %
05.07.2016 20:00 25,8 C 51 % 1011,0 hPa 0,0 l/m 3,4 km/h (1 Bft) W-NW 290 2 min 0,000 mm 0,0 UV-I 100 W/m 14,9 C 25,8 C 9,7 km/h (2 Bft) 97,56 %
05.07.2016 20:02 25,8 C 50 % 1011,0 hPa 0,0 l/m 4,3 km/h (1 Bft) SW 229 2 min 0,152 mm 0,0 UV-I 95 W/m 14,6 C 25,8 C 6,4 km/h (2 Bft) 96,43 %
05.07.2016 20:04 25,7 C 50 % 1011,1 hPa 0,0 l/m 4,1 km/h (1 Bft) W-SW 244 2 min 0,001 mm 0,0 UV-I 93 W/m 14,5 C 25,7 C 6,4 km/h (2 Bft) 95,12 %
05.07.2016 20:06 25,7 C 51 % 1011,1 hPa 0,0 l/m 7,0 km/h (2 Bft) W-SW 247 2 min 0,000 mm 0,0 UV-I 84 W/m 14,8 C 25,6 C 14,5 km/h (3 Bft) 97,37 %
05.07.2016 20:08 25,6 C 50 % 1011,1 hPa 0,0 l/m 6,4 km/h (2 Bft) W-NW 290 0 min 0,000 mm 0,0 UV-I 66 W/m 14,4 C 25,6 C 22,5 km/h (4 Bft) 98,00 %
05.07.2016 20:10 25,5 C 51 % 1011,1 hPa 0,0 l/m 4,1 km/h (1 Bft) NO 38 2 min 0,000 mm 0,0 UV-I 68 W/m 14,6 C 25,5 C 9,7 km/h (2 Bft) 98,21 %
05.07.2016 20:12 25,4 C 51 % 1011,1 hPa 0,0 l/m 3,4 km/h (1 Bft) W-SW 244 2 min 0,000 mm 0,0 UV-I 68 W/m 14,5 C 25,4 C 8,0 km/h (2 Bft) 96,00 %
05.07.2016 20:14 25,3 C 50 % 1011,1 hPa 0,0 l/m 10,2 km/h (2 Bft) W 260 2 min 0,000 mm 0,0 UV-I 64 W/m 14,1 C 24,5 C 17,7 km/h (3 Bft) 93,62 %
05.07.2016 20:16 25,2 C 51 % 1011,1 hPa 0,0 l/m 4,2 km/h (1 Bft) W 278 0 min 0,000 mm 0,0 UV-I 50 W/m 14,3 C 25,2 C 9,7 km/h (2 Bft) 100,00 %
05.07.2016 20:18 25,2 C 51 % 1011,2 hPa 0,0 l/m 4,5 km/h (1 Bft) W 270 0 min 0,000 mm 0,0 UV-I 45 W/m 14,3 C 25,2 C 9,7 km/h (2 Bft) 96,23 %
05.07.2016 20:20 25,1 C 52 % 1011,2 hPa 0,0 l/m 6,1 km/h (2 Bft) W 259 0 min 0,000 mm 0,0 UV-I 50 W/m 14,5 C 25,1 C 11,3 km/h (2 Bft) 97,62 %
05.07.2016 20:22 24,9 C 52 % 1011,2 hPa 0,0 l/m 5,1 km/h (1 Bft) W 269 0 min 0,000 mm 0,0 UV-I 49 W/m 14,4 C 24,9 C 11,3 km/h (2 Bft) 96,15 %
05.07.2016 20:24 24,9 C 52 % 1011,2 hPa 0,0 l/m 5,2 km/h (1 Bft) W 268 0 min 0,000 mm 0,0 UV-I 44 W/m 14,4 C 24,9 C 11,3 km/h (2 Bft) 100,00 %
05.07.2016 20:26 24,8 C 52 % 1011,2 hPa 0,0 l/m 6,2 km/h (2 Bft) W 281 0 min 0,000 mm 0,0 UV-I 38 W/m 14,3 C 24,8 C 11,3 km/h (2 Bft) 97,44 %
05.07.2016 20:28 24,8 C 53 % 1011,2 hPa 0,0 l/m 3,7 km/h (1 Bft) W-SW 253 0 min 0,000 mm 0,0 UV-I 33 W/m 14,6 C 24,8 C 6,4 km/h (2 Bft) 97,87 %
05.07.2016 20:30 24,7 C 53 % 1011,3 hPa 0,0 l/m 3,4 km/h (1 Bft) W-SW 249 0 min 0,000 mm 0,0 UV-I 29 W/m 14,5 C 24,7 C 6,4 km/h (2 Bft) 96,00 %
05.07.2016 20:32 24,7 C 52 % 1011,3 hPa 0,0 l/m 3,8 km/h (1 Bft) W 262 0 min 0,000 mm 0,0 UV-I 26 W/m 14,2 C 24,7 C 6,4 km/h (2 Bft) 100,00 %
05.07.2016 20:34 24,6 C 53 % 1011,3 hPa 0,0 l/m 3,6 km/h (1 Bft) W-SW 254 0 min 0,000 mm 0,0 UV-I 25 W/m 14,4 C 24,6 C 9,7 km/h (2 Bft) 100,00 %
05.07.2016 20:36 24,5 C 54 % 1011,3 hPa 0,0 l/m 3,7 km/h (1 Bft) W 266 0 min 0,000 mm 0,0 UV-I 22 W/m 14,6 C 24,5 C 6,4 km/h (2 Bft) 100,00 %
05.07.2016 20:38 24,4 C 53 % 1011,3 hPa 0,0 l/m 4,4 km/h (1 Bft) W 263 0 min 0,000 mm 0,0 UV-I 19 W/m 14,2 C 24,4 C 9,7 km/h (2 Bft) 100,00 %
05.07.2016 20:40 24,4 C 54 % 1011,4 hPa 0,0 l/m 4,4 km/h (1 Bft) W-SW 252 0 min 0,000 mm 0,0 UV-I 16 W/m 14,5 C 24,4 C 6,4 km/h (2 Bft) 100,00 %
05.07.2016 20:42 24,3 C 54 % 1011,4 hPa 0,0 l/m 5,8 km/h (2 Bft) W-SW 254 0 min 0,000 mm 0,0 UV-I 14 W/m 14,4 C 24,3 C 11,3 km/h (2 Bft) 100,00 %
05.07.2016 20:44 24,3 C 54 % 1011,5 hPa 0,0 l/m 5,3 km/h (1 Bft) W 273 0 min 0,000 mm 0,0 UV-I 14 W/m 14,4 C 24,3 C 11,3 km/h (2 Bft) 100,00 %
05.07.2016 20:46 24,3 C 53 % 1011,5 hPa 0,0 l/m 5,0 km/h (1 Bft) W 273 0 min 0,000 mm 0,0 UV-I 14 W/m 14,1 C 24,3 C 11,3 km/h (2 Bft) 100,00 %
05.07.2016 20:48 24,3 C 54 % 1011,5 hPa 0,0 l/m 2,9 km/h (1 Bft) W-SW 258 0 min 0,000 mm 0,0 UV-I 14 W/m 14,4 C 24,3 C 9,7 km/h (2 Bft) 100,00 %
05.07.2016 20:50 24,3 C 54 % 1011,5 hPa 0,0 l/m 4,5 km/h (1 Bft) W-NW 285 2 min 0,000 mm 0,0 UV-I 14 W/m 14,4 C 24,3 C 9,7 km/h (2 Bft) 100,00 %
05.07.2016 20:52 24,3 C 54 % 1011,5 hPa 0,0 l/m 3,5 km/h (1 Bft) W 269 2 min 0,000 mm 0,0 UV-I 13 W/m 14,4 C 24,3 C 6,4 km/h (2 Bft) 98,11 %
05.07.2016 20:54 24,3 C 54 % 1011,6 hPa 0,0 l/m 4,2 km/h (1 Bft) W 267 0 min 0,000 mm 0,0 UV-I 11 W/m 14,4 C 24,3 C 6,4 km/h (2 Bft) 100,00 %
05.07.2016 20:56 24,3 C 54 % 1011,6 hPa 0,0 l/m 2,9 km/h (1 Bft) W-SW 254 0 min 0,000 mm 0,0 UV-I 11 W/m 14,4 C 24,3 C 6,4 km/h (2 Bft) 100,00 %
05.07.2016 20:58 24,2 C 54 % 1011,6 hPa 0,0 l/m 3,8 km/h (1 Bft) W 275 0 min 0,000 mm 0,0 UV-I 10 W/m 14,3 C 24,2 C 6,4 km/h (2 Bft) 98,11 %
05.07.2016 21:00 24,2 C 55 % 1011,7 hPa 0,0 l/m 3,3 km/h (1 Bft) W-SW 257 0 min 0,000 mm 0,0 UV-I 9 W/m 14,6 C 24,2 C 6,4 km/h (2 Bft) 100,00 %
05.07.2016 21:02 24,1 C 54 % 1011,8 hPa 0,0 l/m 2,6 km/h (1 Bft) W-NW 291 0 min 0,076 mm 0,0 UV-I 9 W/m 14,2 C 24,1 C 6,4 km/h (2 Bft) 100,00 %
05.07.2016 21:04 24,1 C 55 % 1011,8 hPa 0,0 l/m 2,1 km/h (1 Bft) W-NW 291 0 min 0,000 mm 0,0 UV-I 9 W/m 14,5 C 24,1 C 3,2 km/h (1 Bft) 100,00 %
05.07.2016 21:06 24,0 C 57 % 1011,8 hPa 0,0 l/m 2,2 km/h (1 Bft) W-NW 284 0 min 0,000 mm 0,0 UV-I 8 W/m 14,9 C 24,0 C 4,8 km/h (1 Bft) 100,00 %
05.07.2016 21:08 23,8 C 58 % 1011,8 hPa 0,0 l/m 2,6 km/h (1 Bft) W 265 0 min 0,000 mm 0,0 UV-I 7 W/m 15,0 C 23,8 C 6,4 km/h (2 Bft) 98,00 %
05.07.2016 21:10 23,7 C 58 % 1011,8 hPa 0,0 l/m 2,2 km/h (1 Bft) NW 305 0 min 0,000 mm 0,0 UV-I 7 W/m 14,9 C 23,7 C 6,4 km/h (2 Bft) 100,00 %
05.07.2016 21:12 23,7 C 58 % 1011,8 hPa 0,0 l/m 2,5 km/h (1 Bft) W-NW 290 0 min 0,000 mm 0,0 UV-I 7 W/m 14,9 C 23,7 C 4,8 km/h (1 Bft) 100,00 %
05.07.2016 21:14 23,6 C 57 % 1011,8 hPa 0,0 l/m 3,0 km/h (1 Bft) NW 321 0 min 0,000 mm 0,0 UV-I 5 W/m 14,6 C 23,6 C 4,8 km/h (1 Bft) 98,11 %
05.07.2016 21:16 23,5 C 57 % 1011,8 hPa 0,0 l/m 2,4 km/h (1 Bft) W 273 0 min 0,000 mm 0,0 UV-I 5 W/m 14,5 C 23,5 C 6,4 km/h (2 Bft) 100,00 %
05.07.2016 21:18 23,4 C 59 % 1011,8 hPa 0,0 l/m 1,3 km/h (1 Bft) W 273 0 min 0,000 mm 0,0 UV-I 1 W/m 14,9 C 23,4 C 3,2 km/h (1 Bft) 100,00 %
05.07.2016 21:20 23,4 C 58 % 1011,7 hPa 0,0 l/m 0,1 km/h (0 Bft) W 273 0 min 0,000 mm 0,0 UV-I 0 W/m 14,7 C 23,4 C 1,6 km/h (1 Bft) 100,00 %
05.07.2016 21:22 23,3 C 59 % 1011,8 hPa 0,0 l/m 0,9 km/h (0 Bft) W 273 0 min 0,000 mm 0,0 UV-I 0 W/m 14,8 C 23,3 C 3,2 km/h (1 Bft) 100,00 %
05.07.2016 21:24 23,3 C 59 % 1011,8 hPa 0,0 l/m 1,0 km/h (0 Bft) W 269 0 min 0,000 mm 0,0 UV-I 0 W/m 14,8 C 23,3 C 3,2 km/h (1 Bft) 100,00 %
05.07.2016 21:26 23,3 C 59 % 1011,9 hPa 0,0 l/m 2,1 km/h (1 Bft) W 269 0 min 0,000 mm 0,0 UV-I 0 W/m 14,8 C 23,3 C 3,2 km/h (1 Bft) 97,87 %
05.07.2016 21:28 23,3 C 58 % 1011,8 hPa 0,0 l/m 1,5 km/h (1 Bft) W 275 0 min 0,000 mm 0,0 UV-I 0 W/m 14,6 C 23,3 C 4,8 km/h (1 Bft) 100,00 %
05.07.2016 21:30 23,2 C 59 % 1011,8 hPa 0,0 l/m 0,2 km/h (0 Bft) W 275 0 min 0,000 mm 0,0 UV-I 0 W/m 14,7 C 23,2 C 1,6 km/h (1 Bft) 100,00 %
05.07.2016 21:32 23,2 C 60 % 1011,8 hPa 0,0 l/m 0,0 km/h (0 Bft) W 275 0 min 0,000 mm 0,0 UV-I 0 W/m 15,0 C 23,2 C 1,6 km/h (1 Bft) 97,87 %
05.07.2016 21:34 23,2 C 61 % 1011,9 hPa 0,0 l/m 1,2 km/h (1 Bft) W 275 0 min 0,000 mm 0,0 UV-I 0 W/m 15,3 C 23,2 C 3,2 km/h (1 Bft) 74,47 %
05.07.2016 21:36 23,0 C 62 % 1011,9 hPa 0,0 l/m 1,7 km/h (1 Bft) W 275 0 min 0,000 mm 0,0 UV-I 0 W/m 15,3 C 23,0 C 3,2 km/h (1 Bft) 76,79 %
05.07.2016 21:38 22,9 C 62 % 1012,1 hPa 0,0 l/m 2,4 km/h (1 Bft) W 275 0 min 0,000 mm 0,0 UV-I 0 W/m 15,2 C 22,9 C 3,2 km/h (1 Bft) 97,44 %
05.07.2016 21:40 22,8 C 62 % 1012,2 hPa 0,0 l/m 2,7 km/h (1 Bft) W 275 0 min 0,000 mm 0,0 UV-I 0 W/m 15,1 C 22,8 C 4,8 km/h (1 Bft) 100,00 %
05.07.2016 21:42 22,7 C 63 % 1012,2 hPa 0,0 l/m 4,2 km/h (1 Bft) W-SW 258 0 min 0,000 mm 0,0 UV-I 0 W/m 15,3 C 22,7 C 6,4 km/h (2 Bft) 100,00 %
05.07.2016 21:44 22,6 C 65 % 1012,2 hPa 0,0 l/m 4,6 km/h (1 Bft) W-SW 258 0 min 0,000 mm 0,0 UV-I 0 W/m 15,7 C 22,6 C 6,4 km/h (2 Bft) 100,00 %
05.07.2016 21:46 22,4 C 67 % 1012,3 hPa 0,0 l/m 4,8 km/h (1 Bft) W 269 0 min 0,000 mm 0,0 UV-I 0 W/m 16,0 C 22,4 C 6,4 km/h (2 Bft) 100,00 %
05.07.2016 21:48 22,3 C 67 % 1012,3 hPa 0,0 l/m 6,8 km/h (2 Bft) SW 231 0 min 0,000 mm 0,0 UV-I 0 W/m 15,9 C 22,2 C 17,7 km/h (3 Bft) 97,73 %
05.07.2016 21:50 22,2 C 65 % 1012,4 hPa 0,0 l/m 3,7 km/h (1 Bft) W 273 0 min 0,000 mm 0,0 UV-I 0 W/m 15,3 C 22,2 C 9,7 km/h (2 Bft) 89,47 %
05.07.2016 21:52 22,2 C 64 % 1012,4 hPa 0,0 l/m 7,7 km/h (2 Bft) W 266 0 min 0,000 mm 0,0 UV-I 0 W/m 15,1 C 21,8 C 12,9 km/h (3 Bft) 97,92 %
05.07.2016 21:54 22,2 C 64 % 1012,3 hPa 0,0 l/m 4,3 km/h (1 Bft) N-NO 19 0 min 0,000 mm 0,0 UV-I 0 W/m 15,1 C 22,2 C 11,3 km/h (2 Bft) 96,15 %
05.07.2016 21:56 22,1 C 65 % 1012,2 hPa 0,0 l/m 1,9 km/h (1 Bft) N-NO 14 0 min 0,000 mm 0,0 UV-I 0 W/m 15,2 C 22,1 C 3,2 km/h (1 Bft) 96,00 %
05.07.2016 21:58 21,9 C 66 % 1012,2 hPa 0,0 l/m 0,5 km/h (0 Bft) N-NO 14 0 min 0,000 mm 0,0 UV-I 0 W/m 15,3 C 21,9 C 1,6 km/h (1 Bft) 97,56 %
05.07.2016 22:00 21,8 C 66 % 1012,2 hPa 0,0 l/m 1,2 km/h (1 Bft) N-NW 337 0 min 0,000 mm 0,0 UV-I 0 W/m 15,2 C 21,8 C 3,2 km/h (1 Bft) 96,00 %
05.07.2016 22:02 21,7 C 66 % 1012,2 hPa 0,0 l/m 0,4 km/h (0 Bft) W-NW 298 0 min 0,025 mm 0,0 UV-I 0 W/m 15,1 C 21,7 C 3,2 km/h (1 Bft) 95,12 %
05.07.2016 22:04 21,6 C 67 % 1012,3 hPa 0,0 l/m 3,0 km/h (1 Bft) W-SW 246 0 min 0,000 mm 0,0 UV-I 0 W/m 15,2 C 21,6 C 4,8 km/h (1 Bft) 98,11 %
05.07.2016 22:06 21,5 C 67 % 1012,2 hPa 0,0 l/m 2,8 km/h (1 Bft) W-SW 246 0 min 0,000 mm 0,0 UV-I 0 W/m 15,1 C 21,5 C 4,8 km/h (1 Bft) 97,87 %
05.07.2016 22:08 21,4 C 68 % 1012,3 hPa 0,0 l/m 1,7 km/h (1 Bft) W-SW 246 0 min 0,000 mm 0,0 UV-I 0 W/m 15,2 C 21,4 C 3,2 km/h (1 Bft) 97,37 %
05.07.2016 22:10 21,3 C 66 % 1012,2 hPa 0,0 l/m 2,0 km/h (1 Bft) W 273 0 min 0,000 mm 0,0 UV-I 0 W/m 14,7 C 21,3 C 4,8 km/h (1 Bft) 96,30 %
05.07.2016 22:12 21,2 C 69 % 1012,2 hPa 0,0 l/m 1,1 km/h (1 Bft) W 273 0 min 0,000 mm 0,0 UV-I 0 W/m 15,3 C 21,2 C 3,2 km/h (1 Bft) 98,72 %
05.07.2016 22:14 21,1 C 68 % 1012,2 hPa 0,0 l/m 2,8 km/h (1 Bft) W 265 0 min 0,000 mm 0,0 UV-I 0 W/m 15,0 C 21,1 C 4,8 km/h (1 Bft) 97,37 %
05.07.2016 22:16 21,1 C 68 % 1012,2 hPa 0,0 l/m 4,5 km/h (1 Bft) W 274 0 min 0,000 mm 0,0 UV-I 0 W/m 15,0 C 21,1 C 12,9 km/h (3 Bft) 96,43 %
05.07.2016 22:18 21,2 C 68 % 1012,2 hPa 0,0 l/m 5,4 km/h (1 Bft) W 263 0 min 0,000 mm 0,0 UV-I 0 W/m 15,1 C 21,2 C 8,0 km/h (2 Bft) 100,00 %
05.07.2016 22:20 21,2 C 67 % 1012,3 hPa 0,0 l/m 7,3 km/h (2 Bft) W-NW 284 0 min 0,000 mm 0,0 UV-I 0 W/m 14,8 C 20,9 C 19,3 km/h (3 Bft) 96,36 %
05.07.2016 22:22 21,3 C 65 % 1012,3 hPa 0,0 l/m 10,4 km/h (2 Bft) W 268 0 min 0,000 mm 0,0 UV-I 0 W/m 14,4 C 20,0 C 14,5 km/h (3 Bft) 100,00 %
05.07.2016 22:24 21,4 C 64 % 1012,4 hPa 0,0 l/m 9,8 km/h (2 Bft) W 277 0 min 0,000 mm 0,0 UV-I 0 W/m 14,3 C 20,2 C 16,1 km/h (3 Bft) 98,00 %
05.07.2016 22:26 21,6 C 64 % 1012,5 hPa 0,0 l/m 9,7 km/h (2 Bft) W 259 0 min 0,000 mm 0,0 UV-I 0 W/m 14,5 C 20,5 C 20,9 km/h (4 Bft) 100,00 %
05.07.2016 22:28 21,7 C 64 % 1012,5 hPa 0,0 l/m 9,2 km/h (2 Bft) W-NW 286 0 min 0,000 mm 0,0 UV-I 0 W/m 14,6 C 20,8 C 14,5 km/h (3 Bft) 100,00 %
05.07.2016 22:30 21,8 C 63 % 1012,6 hPa 0,0 l/m 13,1 km/h (3 Bft) W 268 0 min 0,000 mm 0,0 UV-I 0 W/m 14,4 C 19,8 C 22,5 km/h (4 Bft) 100,00 %
05.07.2016 22:32 21,8 C 63 % 1012,6 hPa 0,0 l/m 12,7 km/h (3 Bft) W 271 0 min 0,000 mm 0,0 UV-I 0 W/m 14,4 C 19,9 C 20,9 km/h (4 Bft) 100,00 %
05.07.2016 22:34 21,8 C 63 % 1012,6 hPa 0,0 l/m 9,4 km/h (2 Bft) W 271 0 min 0,000 mm 0,0 UV-I 0 W/m 14,4 C 20,8 C 16,1 km/h (3 Bft) 98,11 %
05.07.2016 22:36 21,8 C 63 % 1012,6 hPa 0,0 l/m 11,9 km/h (2 Bft) W 267 0 min 0,000 mm 0,0 UV-I 0 W/m 14,4 C 20,1 C 22,5 km/h (4 Bft) 97,87 %
05.07.2016 22:38 21,8 C 63 % 1012,7 hPa 0,0 l/m 9,5 km/h (2 Bft) NO 44 0 min 0,000 mm 0,0 UV-I 0 W/m 14,4 C 20,8 C 14,5 km/h (3 Bft) 100,00 %
05.07.2016 22:40 21,8 C 63 % 1012,8 hPa 0,0 l/m 9,7 km/h (2 Bft) SW 228 0 min 0,000 mm 0,0 UV-I 0 W/m 14,4 C 20,7 C 19,3 km/h (3 Bft) 100,00 %
05.07.2016 22:42 21,8 C 63 % 1012,8 hPa 0,0 l/m 7,7 km/h (2 Bft) W 260 0 min 0,000 mm 0,0 UV-I 0 W/m 14,4 C 21,3 C 14,5 km/h (3 Bft) 98,00 %
05.07.2016 22:44 21,7 C 63 % 1012,8 hPa 0,0 l/m 6,9 km/h (2 Bft) W 276 0 min 0,000 mm 0,0 UV-I 0 W/m 14,3 C 21,5 C 11,3 km/h (2 Bft) 98,21 %
05.07.2016 22:46 21,7 C 64 % 1012,8 hPa 0,0 l/m 5,8 km/h (2 Bft) W-NW 287 0 min 0,000 mm 0,0 UV-I 0 W/m 14,6 C 21,7 C 11,3 km/h (2 Bft) 100,00 %
05.07.2016 22:48 21,6 C 64 % 1012,9 hPa 0,0 l/m 6,0 km/h (2 Bft) W-SW 252 0 min 0,000 mm 0,0 UV-I 0 W/m 14,5 C 21,6 C 12,9 km/h (3 Bft) 98,21 %
05.07.2016 22:50 21,5 C 64 % 1012,9 hPa 0,0 l/m 6,8 km/h (2 Bft) W-SW 252 0 min 0,000 mm 0,0 UV-I 0 W/m 14,4 C 21,4 C 11,3 km/h (2 Bft) 100,00 %
05.07.2016 22:52 21,4 C 64 % 1012,9 hPa 0,0 l/m 8,2 km/h (2 Bft) W 263 0 min 0,000 mm 0,0 UV-I 0 W/m 14,3 C 20,8 C 16,1 km/h (3 Bft) 100,00 %
05.07.2016 22:54 21,4 C 64 % 1012,9 hPa 0,0 l/m 8,2 km/h (2 Bft) W 267 0 min 0,000 mm 0,0 UV-I 0 W/m 14,3 C 20,8 C 14,5 km/h (3 Bft) 100,00 %
05.07.2016 22:56 21,4 C 64 % 1013,0 hPa 0,0 l/m 8,7 km/h (2 Bft) W 271 0 min 0,000 mm 0,0 UV-I 0 W/m 14,3 C 20,6 C 14,5 km/h (3 Bft) 100,00 %
05.07.2016 22:58 21,3 C 64 % 1013,0 hPa 0,0 l/m 13,4 km/h (3 Bft) W 271 0 min 0,000 mm 0,0 UV-I 0 W/m 14,2 C 19,2 C 27,4 km/h (4 Bft) 100,00 %
05.07.2016 23:00 21,3 C 64 % 1013,0 hPa 0,0 l/m 11,8 km/h (2 Bft) W-SW 253 0 min 0,000 mm 0,0 UV-I 0 W/m 14,2 C 19,6 C 22,5 km/h (4 Bft) 100,00 %
05.07.2016 23:02 21,3 C 64 % 1013,0 hPa 0,0 l/m 11,5 km/h (2 Bft) W 268 0 min 0,051 mm 0,0 UV-I 0 W/m 14,2 C 19,7 C 20,9 km/h (4 Bft) 100,00 %
05.07.2016 23:04 21,3 C 64 % 1013,1 hPa 0,0 l/m 10,9 km/h (2 Bft) W 276 0 min 0,000 mm 0,0 UV-I 0 W/m 14,2 C 19,8 C 17,7 km/h (3 Bft) 100,00 %
05.07.2016 23:06 21,2 C 64 % 1013,2 hPa 0,0 l/m 12,0 km/h (2 Bft) W-SW 250 0 min 0,000 mm 0,0 UV-I 0 W/m 14,1 C 19,4 C 22,5 km/h (4 Bft) 100,00 %
05.07.2016 23:08 21,2 C 64 % 1013,3 hPa 0,0 l/m 12,2 km/h (2 Bft) W 278 0 min 0,000 mm 0,0 UV-I 0 W/m 14,1 C 19,4 C 24,1 km/h (4 Bft) 100,00 %
05.07.2016 23:10 21,2 C 63 % 1013,2 hPa 0,0 l/m 15,3 km/h (3 Bft) W-SW 257 0 min 0,000 mm 0,0 UV-I 0 W/m 13,9 C 18,6 C 29,0 km/h (5 Bft) 100,00 %
05.07.2016 23:12 21,1 C 64 % 1013,3 hPa 0,0 l/m 9,0 km/h (2 Bft) W-SW 249 0 min 0,000 mm 0,0 UV-I 0 W/m 14,0 C 20,2 C 19,3 km/h (3 Bft) 100,00 %
05.07.2016 23:14 21,1 C 64 % 1013,3 hPa 0,0 l/m 8,4 km/h (2 Bft) W-SW 240 0 min 0,000 mm 0,0 UV-I 0 W/m 14,0 C 20,4 C 16,1 km/h (3 Bft) 97,37 %
05.07.2016 23:16 21,0 C 64 % 1013,4 hPa 0,0 l/m 8,2 km/h (2 Bft) W 260 0 min 0,000 mm 0,0 UV-I 0 W/m 13,9 C 20,3 C 14,5 km/h (3 Bft) 98,21 %
05.07.2016 23:18 20,9 C 65 % 1013,4 hPa 0,0 l/m 12,2 km/h (2 Bft) N 360 0 min 0,000 mm 0,0 UV-I 0 W/m 14,1 C 19,0 C 20,9 km/h (4 Bft) 97,87 %
05.07.2016 23:20 20,9 C 65 % 1013,4 hPa 0,0 l/m 10,5 km/h (2 Bft) W 275 0 min 0,000 mm 0,0 UV-I 0 W/m 14,1 C 19,5 C 14,5 km/h (3 Bft) 96,00 %
05.07.2016 23:22 20,9 C 65 % 1013,4 hPa 0,0 l/m 12,6 km/h (3 Bft) W-NW 293 0 min 0,000 mm 0,0 UV-I 0 W/m 14,1 C 18,9 C 20,9 km/h (4 Bft) 100,00 %
05.07.2016 23:24 20,8 C 64 % 1013,4 hPa 0,0 l/m 11,9 km/h (2 Bft) W 274 0 min 0,000 mm 0,0 UV-I 0 W/m 13,7 C 19,0 C 22,5 km/h (4 Bft) 100,00 %
05.07.2016 23:26 20,8 C 64 % 1013,4 hPa 0,0 l/m 11,5 km/h (2 Bft) W-SW 257 0 min 0,000 mm 0,0 UV-I 0 W/m 13,7 C 19,1 C 25,7 km/h (4 Bft) 100,00 %
05.07.2016 23:28 20,8 C 64 % 1013,4 hPa 0,0 l/m 9,8 km/h (2 Bft) SW 233 0 min 0,000 mm 0,0 UV-I 0 W/m 13,7 C 19,6 C 17,7 km/h (3 Bft) 90,24 %
05.07.2016 23:30 20,7 C 64 % 1013,4 hPa 0,0 l/m 10,1 km/h (2 Bft) W-SW 249 0 min 0,000 mm 0,0 UV-I 0 W/m 13,6 C 19,4 C 20,9 km/h (4 Bft) 100,00 %
05.07.2016 23:32 20,7 C 63 % 1013,4 hPa 0,0 l/m 13,0 km/h (3 Bft) W 279 0 min 0,000 mm 0,0 UV-I 0 W/m 13,4 C 18,6 C 22,5 km/h (4 Bft) 100,00 %
05.07.2016 23:34 20,7 C 64 % 1013,4 hPa 0,0 l/m 12,1 km/h (2 Bft) W-SW 257 0 min 0,000 mm 0,0 UV-I 0 W/m 13,6 C 18,8 C 24,1 km/h (4 Bft) 100,00 %
05.07.2016 23:36 20,7 C 64 % 1013,4 hPa 0,0 l/m 10,9 km/h (2 Bft) W-SW 244 0 min 0,000 mm 0,0 UV-I 0 W/m 13,6 C 19,1 C 16,1 km/h (3 Bft) 100,00 %
05.07.2016 23:38 20,6 C 64 % 1013,4 hPa 0,0 l/m 8,6 km/h (2 Bft) W-NW 285 0 min 0,000 mm 0,0 UV-I 0 W/m 13,5 C 19,8 C 16,1 km/h (3 Bft) 100,00 %
05.07.2016 23:40 20,6 C 64 % 1013,3 hPa 0,0 l/m 7,0 km/h (2 Bft) W-SW 253 0 min 0,000 mm 0,0 UV-I 0 W/m 13,5 C 20,4 C 12,9 km/h (3 Bft) 100,00 %
05.07.2016 23:42 20,6 C 64 % 1013,4 hPa 0,0 l/m 6,0 km/h (2 Bft) W-NW 302 0 min 0,000 mm 0,0 UV-I 0 W/m 13,5 C 20,6 C 12,9 km/h (3 Bft) 100,00 %
05.07.2016 23:44 20,5 C 64 % 1013,3 hPa 0,0 l/m 9,2 km/h (2 Bft) W-SW 240 0 min 0,000 mm 0,0 UV-I 0 W/m 13,5 C 19,5 C 17,7 km/h (3 Bft) 98,11 %
05.07.2016 23:46 20,5 C 64 % 1013,4 hPa 0,0 l/m 8,7 km/h (2 Bft) SW 229 0 min 0,000 mm 0,0 UV-I 0 W/m 13,5 C 19,6 C 16,1 km/h (3 Bft) 98,11 %
05.07.2016 23:48 20,5 C 64 % 1013,4 hPa 0,0 l/m 8,9 km/h (2 Bft) W-SW 244 0 min 0,000 mm 0,0 UV-I 0 W/m 13,5 C 19,6 C 14,5 km/h (3 Bft) 97,37 %
05.07.2016 23:50 20,4 C 64 % 1013,4 hPa 0,0 l/m 11,1 km/h (2 Bft) S-SW 198 0 min 0,000 mm 0,0 UV-I 0 W/m 13,4 C 18,7 C 16,1 km/h (3 Bft) 95,74 %
05.07.2016 23:52 20,4 C 64 % 1013,4 hPa 0,0 l/m 9,2 km/h (2 Bft) W-SW 252 0 min 0,000 mm 0,0 UV-I 0 W/m 13,4 C 19,3 C 19,3 km/h (3 Bft) 96,23 %
05.07.2016 23:54 20,3 C 64 % 1013,4 hPa 0,0 l/m 8,0 km/h (2 Bft) W-NW 296 0 min 0,000 mm 0,0 UV-I 0 W/m 13,3 C 19,7 C 12,9 km/h (3 Bft) 98,00 %
05.07.2016 23:56 20,3 C 64 % 1013,4 hPa 0,0 l/m 11,5 km/h (2 Bft) W 264 0 min 0,000 mm 0,0 UV-I 0 W/m 13,3 C 18,5 C 16,1 km/h (3 Bft) 97,56 %
05.07.2016 23:58 20,3 C 64 % 1013,4 hPa 0,0 l/m 8,9 km/h (2 Bft) W-SW 253 0 min 0,000 mm 0,0 UV-I 0 W/m 13,3 C 19,3 C 17,7 km/h (3 Bft) 94,34 %
_ Min-Zeit 05:28 16:52 19:28 - 01:14 - - - - - - 05:28 05:28 01:14 15:44
Minimum _ 12,4 C 40 % 1010,9 hPa - 0,0 km/h (0 Bft) - - - - - - 11,3 C 12,4 C 0,0 km/h (0 Bft) 66,67 %
_ Max-Zeit 16:30 04:18 00:32 00:00 16:52 - - 15:48 13:00 13:06 12:28 11:32 16:14 16:48 00:00
Maximum _ 27,9 C 94 % 1017,9 hPa 0,0 l/m 19,8 km/h
W-SW (3 Bft)
- - 4 min 0,585 mm 7,9 UV-I 1098 W/m 17,6 C 27,7 C 29,0 km/h
W-SW (5 Bft)
100,00 %
Durchschnitt _ 20,8 C 69 % 1014,3 hPa #0,0 l/m 3,7 km/h (1 Bft) W-SW - #12:30 h #5,207 mm 3,8 UV-I 468 W/m 14,1 C 20,6 C 7,2 km/h (2 Bft) 97,58 %